| time (UTC) | temp F | wind direction | speed knots | gust knots | rain 1hr in | rain 24hr in | rain mn in | humidity % | barometer mb |
| 20260506044659 | 76 | 176 | 0.0 | 1.7 | 0.00 | 0.01 | 0.01 | 100 | 1009.0 |
| 20260506044600 | 76 | 176 | 0.9 | 1.7 | 0.00 | 0.01 | 0.01 | 100 | 1009.0 |
| 20260506044500 | 76 | 176 | 0.0 | 1.7 | 0.00 | 0.01 | 0.01 | 100 | 1009.0 |
| 20260506044400 | 76 | 176 | 0.0 | 1.7 | 0.00 | 0.01 | 0.01 | 100 | 1009.0 |
| 20260506044259 | 76 | 176 | 0.0 | 1.7 | 0.00 | 0.01 | 0.01 | 100 | 1009.0 |
| 20260506044159 | 76 | 176 | 0.0 | 1.7 | 0.00 | 0.01 | 0.01 | 100 | 1009.0 |
| 20260506044059 | 76 | 176 | 0.0 | 2.6 | 0.00 | 0.01 | 0.01 | 100 | 1009.0 |
| 20260506044001 | 76 | 176 | 0.0 | 2.6 | 0.00 | 0.01 | 0.01 | 100 | 1009.0 |
| 20260506043859 | 76 | 176 | 0.9 | 2.6 | 0.00 | 0.01 | 0.01 | 100 | 1009.0 |
| 20260506043658 | 76 | 176 | 0.0 | 2.6 | 0.00 | 0.01 | 0.01 | 100 | 1009.0 |
| 20260506043600 | 76 | 176 | 0.0 | 2.6 | 0.00 | 0.01 | 0.01 | 100 | 1009.0 |
| 20260506043500 | 76 | 176 | 0.0 | 2.6 | 0.00 | 0.01 | 0.01 | 100 | 1009.0 |
| 20260506043259 | 76 | 176 | 1.7 | 2.6 | 0.00 | 0.01 | 0.01 | 100 | 1008.9 |
| 20260506043158 | 76 | 176 | 0.0 | 2.6 | 0.00 | 0.01 | 0.01 | 100 | 1009.0 |
| 20260506043057 | 76 | 176 | 0.9 | 2.6 | 0.00 | 0.01 | 0.01 | 100 | 1008.9 |
| 20260506043001 | 76 | 176 | 2.6 | 2.6 | 0.00 | 0.01 | 0.01 | 100 | 1008.9 |
| 20260506042858 | 76 | 177 | 0.9 | 2.6 | 0.00 | 0.01 | 0.01 | 100 | 1008.9 |
| 20260506042758 | 76 | 177 | 0.0 | 2.6 | 0.00 | 0.01 | 0.01 | 100 | 1008.9 |
| 20260506042658 | 76 | 177 | 0.0 | 2.6 | 0.00 | 0.01 | 0.01 | 100 | 1008.9 |
| 20260506042600 | 76 | 177 | 0.0 | 2.6 | 0.00 | 0.01 | 0.01 | 100 | 1008.9 |
| 20260506042459 | 76 | 177 | 0.9 | 2.6 | 0.00 | 0.01 | 0.01 | 100 | 1008.9 |
| 20260506042058 | 76 | 177 | 0.0 | 2.6 | 0.00 | 0.01 | 0.01 | 100 | 1008.9 |
| 20260506042001 | 76 | 177 | 0.0 | 2.6 | 0.00 | 0.01 | 0.01 | 100 | 1008.9 |
| 20260506041859 | 76 | 177 | 0.0 | 2.6 | 0.00 | 0.01 | 0.01 | 100 | 1008.9 |
| 20260506041800 | 76 | 177 | 0.0 | 2.6 | 0.00 | 0.01 | 0.01 | 100 | 1008.9 |
| 20260506041658 | 76 | 177 | 0.0 | 2.6 | 0.00 | 0.01 | 0.01 | 100 | 1008.9 |
| 20260506041600 | 76 | 177 | 0.9 | 2.6 | 0.00 | 0.01 | 0.01 | 100 | 1008.9 |
| 20260506041500 | 76 | 177 | 0.0 | 2.6 | 0.00 | 0.01 | 0.01 | 100 | 1008.9 |
| 20260506041200 | 76 | 177 | 0.9 | 2.6 | 0.00 | 0.01 | 0.01 | 100 | 1008.9 |
| 20260506041059 | 76 | 177 | 0.0 | 2.6 | 0.00 | 0.01 | 0.01 | 100 | 1008.8 |
| 20260506040959 | 76 | 177 | 0.0 | 2.6 | 0.00 | 0.01 | 0.01 | 100 | 1008.8 |
| 20260506040859 | 76 | 177 | 0.0 | 2.6 | 0.00 | 0.01 | 0.01 | 100 | 1008.8 |
| 20260506040800 | 76 | 177 | 0.9 | 2.6 | 0.00 | 0.01 | 0.01 | 100 | 1008.8 |
| 20260506040657 | 76 | 177 | 0.9 | 2.6 | 0.00 | 0.01 | 0.01 | 100 | 1008.7 |
| 20260506040558 | 76 | 177 | 0.9 | 3.5 | 0.00 | 0.01 | 0.01 | 100 | 1008.8 |
| 20260506040458 | 76 | 177 | 0.0 | 3.5 | 0.00 | 0.01 | 0.01 | 100 | 1008.8 |
| 20260506040401 | 76 | 177 | 1.7 | 3.5 | 0.00 | 0.01 | 0.01 | 100 | 1008.8 |
| 20260506040258 | 76 | 177 | 0.0 | 3.5 | 0.00 | 0.01 | 0.01 | 100 | 1008.8 |
| 20260506040100 | 76 | 177 | 0.0 | 3.5 | 0.00 | 0.01 | 0.01 | 100 | 1008.8 |
| 20260506040004 | 76 | 177 | 0.9 | 3.5 | 0.00 | 0.01 | 0.01 | 100 | 1008.7 |
| 20260506035659 | 76 | 166 | 1.7 | 2.6 | 0.00 | 0.01 | 0.01 | 1 | 1008.7 |
| 20260506035600 | 76 | 171 | 0.9 | 2.6 | 0.00 | 0.01 | 0.01 | 1 | 1008.7 |
| 20260506035458 | 76 | 171 | 2.6 | 2.6 | 0.00 | 0.01 | 0.01 | 2 | 1008.7 |
| 20260506035400 | 76 | 171 | 0.0 | 1.7 | 0.00 | 0.01 | 0.01 | 2 | 1008.7 |
| 20260506035259 | 76 | 171 | 0.0 | 1.7 | 0.00 | 0.01 | 0.01 | 2 | 1008.7 |
| 20260506035200 | 76 | 171 | 0.0 | 1.7 | 0.00 | 0.01 | 0.01 | 2 | 1008.7 |
| 20260506035057 | 76 | 179 | 0.0 | 2.6 | 0.00 | 0.01 | 0.01 | 2 | 1008.6 |
| 20260506034959 | 76 | 179 | 0.0 | 2.6 | 0.00 | 0.01 | 0.01 | 3 | 1008.6 |
| 20260506034858 | 76 | 179 | 0.9 | 2.6 | 0.00 | 0.01 | 0.01 | 3 | 1008.6 |
| 20260506034801 | 76 | 179 | 0.0 | 2.6 | 0.00 | 0.01 | 0.01 | 3 | 1008.6 |
| 20260506034659 | 76 | 179 | 0.0 | 2.6 | 0.00 | 0.01 | 0.01 | 4 | 1008.6 |
| 20260506034556 | 76 | 179 | 0.9 | 2.6 | 0.00 | 0.01 | 0.01 | 4 | 1008.6 |
| 20260506034458 | 76 | 179 | 0.9 | 2.6 | 0.00 | 0.01 | 0.01 | 4 | 1008.5 |
| 20260506034356 | 76 | 179 | 0.0 | 2.6 | 0.00 | 0.01 | 0.01 | 4 | 1008.5 |
| 20260506034158 | 76 | 179 | 0.0 | 2.6 | 0.00 | 0.01 | 0.01 | 5 | 1008.5 |
| 20260506034057 | 76 | 179 | 0.9 | 2.6 | 0.00 | 0.01 | 0.01 | 5 | 1008.5 |
| 20260506033957 | 76 | 179 | 0.9 | 2.6 | 0.00 | 0.01 | 0.01 | 5 | 1008.5 |
| 20260506033856 | 76 | 179 | 0.0 | 2.6 | 0.00 | 0.01 | 0.01 | 5 | 1008.5 |
| 20260506033658 | 76 | 177 | 0.0 | 3.5 | 0.00 | 0.01 | 0.01 | 6 | 1008.5 |
| 20260506033559 | 77 | 177 | 0.0 | 3.5 | 0.00 | 0.01 | 0.01 | 6 | 1008.5 |
| 20260506033456 | 77 | 177 | 1.7 | 3.5 | 0.00 | 0.01 | 0.01 | 6 | 1008.5 |
| 20260506033358 | 77 | 177 | 0.0 | 5.2 | 0.00 | 0.01 | 0.01 | 7 | 1008.5 |
| 20260506033259 | 77 | 177 | 0.0 | 5.2 | 0.00 | 0.01 | 0.01 | 7 | 1008.4 |
| 20260506033158 | 77 | 177 | 0.0 | 5.2 | 0.00 | 0.01 | 0.01 | 7 | 1008.4 |
| 20260506033056 | 77 | 177 | 0.0 | 5.2 | 0.00 | 0.01 | 0.01 | 7 | 1008.4 |
| 20260506032857 | 77 | 177 | 0.9 | 5.2 | 0.00 | 0.01 | 0.01 | 8 | 1008.4 |
| 20260506032758 | 77 | 177 | 1.7 | 5.2 | 0.00 | 0.01 | 0.01 | 8 | 1008.4 |
| 20260506032556 | 77 | 181 | 4.3 | 5.2 | 0.00 | 0.01 | 0.01 | 9 | 1008.4 |
| 20260506032458 | 77 | 222 | 0.0 | 1.7 | 0.00 | 0.01 | 0.01 | 10 | 1008.4 |
| 20260506032355 | 77 | 221 | 1.7 | 4.3 | 0.00 | 0.01 | 0.01 | 10 | 1008.5 |
| 20260506032255 | 77 | 221 | 0.0 | 4.3 | 0.00 | 0.01 | 0.01 | 10 | 1008.4 |
| 20260506032156 | 77 | 221 | 0.0 | 4.3 | 0.00 | 0.01 | 0.01 | 11 | 1008.4 |
| 20260506032057 | 77 | 221 | 0.0 | 4.3 | 0.00 | 0.01 | 0.01 | 11 | 1008.4 |
| 20260506031855 | 77 | 221 | 0.0 | 4.3 | 0.00 | 0.01 | 0.01 | 11 | 1008.4 |
| 20260506031756 | 77 | 221 | 0.0 | 4.3 | 0.00 | 0.01 | 0.01 | 11 | 1008.5 |
| 20260506031658 | 77 | 221 | 0.9 | 4.3 | 0.00 | 0.01 | 0.01 | 11 | 1008.4 |
| 20260506031558 | 77 | 221 | 0.9 | 4.3 | 0.00 | 0.01 | 0.01 | 12 | 1008.4 |
| 20260506031456 | 77 | 156 | 0.0 | 2.6 | 0.00 | 0.01 | 0.01 | 12 | 1008.4 |
| 20260506031257 | 77 | 167 | 0.0 | 2.6 | 0.00 | 0.01 | 0.01 | 12 | 1008.4 |
| 20260506031158 | 77 | 167 | 0.0 | 2.6 | 0.00 | 0.01 | 0.01 | 13 | 1008.4 |
| 20260506031055 | 77 | 167 | 0.0 | 2.6 | 0.00 | 0.01 | 0.01 | 13 | 1008.3 |
| 20260506030957 | 77 | 167 | 0.0 | 2.6 | 0.00 | 0.01 | 0.01 | 13 | 1008.3 |
| 20260506030758 | 77 | 167 | 1.7 | 2.6 | 0.00 | 0.01 | 0.01 | 13 | 1008.3 |
| 20260506030556 | 77 | 167 | 2.6 | 4.3 | 0.00 | 0.01 | 0.01 | 14 | 1008.2 |
| 20260506030458 | 77 | 167 | 0.9 | 4.3 | 0.00 | 0.01 | 0.01 | 14 | 1008.2 |
| 20260506030358 | 77 | 167 | 0.9 | 4.3 | 0.00 | 0.01 | 0.01 | 14 | 1008.2 |
| 20260506030257 | 77 | 167 | 0.9 | 4.3 | 0.00 | 0.01 | 0.01 | 15 | 1008.2 |
| 20260506030156 | 77 | 167 | 0.9 | 4.3 | 0.00 | 0.01 | 0.01 | 15 | 1008.2 |
| 20260506030058 | 77 | 167 | 0.0 | 4.3 | 0.00 | 0.01 | 0.01 | 15 | 1008.2 |
| 20260506030005 | 77 | 167 | 1.7 | 4.3 | 0.00 | 0.01 | 0.01 | 15 | 1008.2 |
| 20260506025855 | 77 | 167 | 0.9 | 4.3 | 0.00 | 0.01 | 0.01 | 16 | 1008.2 |
| 20260506025656 | 77 | 222 | 0.9 | 4.3 | 0.00 | 0.01 | 0.01 | 16 | 1008.1 |
| 20260506025558 | 77 | 222 | 0.0 | 4.3 | 0.00 | 0.01 | 0.01 | 16 | 1008.1 |
| 20260506025456 | 77 | 222 | 0.9 | 4.3 | 0.00 | 0.01 | 0.01 | 16 | 1008.1 |
| 20260506025255 | 77 | 221 | 0.9 | 3.5 | 0.00 | 0.01 | 0.01 | 16 | 1008.1 |
| 20260506025158 | 77 | 221 | 0.9 | 4.3 | 0.00 | 0.01 | 0.01 | 17 | 1008.0 |
| 20260506025058 | 77 | 221 | 1.7 | 4.3 | 0.00 | 0.01 | 0.01 | 17 | 1008.1 |
| 20260506024957 | 77 | 227 | 0.0 | 4.3 | 0.00 | 0.01 | 0.01 | 17 | 1008.1 |
| 20260506024855 | 77 | 227 | 0.0 | 4.3 | 0.00 | 0.01 | 0.01 | 17 | 1008.1 |
| 20260506024758 | 77 | 227 | 0.0 | 4.3 | 0.00 | 0.01 | 0.01 | 17 | 1008.2 |
| 20260506024658 | 77 | 227 | 0.0 | 4.3 | 0.00 | 0.01 | 0.01 | 17 | 1008.1 |
| 20260506024556 | 77 | 229 | 3.5 | 4.3 | 0.00 | 0.01 | 0.01 | 17 | 1008.1 |
| 20260506024456 | 77 | 211 | 0.0 | 4.3 | 0.00 | 0.01 | 0.01 | 17 | 1008.0 |
| 20260506024359 | 77 | 211 | 0.0 | 4.3 | 0.00 | 0.01 | 0.01 | 17 | 1008.1 |
| 20260506024257 | 77 | 195 | 0.0 | 4.3 | 0.00 | 0.01 | 0.01 | 17 | 1008.0 |
| 20260506024156 | 77 | 195 | 2.6 | 4.3 | 0.00 | 0.01 | 0.01 | 17 | 1008.0 |
| 20260506024057 | 77 | 213 | 0.0 | 3.5 | 0.00 | 0.01 | 0.01 | 17 | 1008.0 |
| 20260506023857 | 77 | 212 | 0.0 | 3.5 | 0.00 | 0.01 | 0.01 | 18 | 1008.0 |
| 20260506023756 | 77 | 212 | 1.7 | 3.5 | 0.00 | 0.01 | 0.01 | 18 | 1008.0 |
| 20260506023656 | 77 | 212 | 0.9 | 3.5 | 0.00 | 0.01 | 0.01 | 18 | 1007.9 |
| 20260506023558 | 77 | 179 | 1.7 | 2.6 | 0.00 | 0.01 | 0.01 | 19 | 1007.9 |
| 20260506023455 | 77 | 179 | 0.0 | 2.6 | 0.00 | 0.01 | 0.01 | 19 | 1007.9 |
| 20260506023356 | 77 | 179 | 0.0 | 2.6 | 0.00 | 0.01 | 0.01 | 19 | 1007.9 |
| 20260506023255 | 77 | 164 | 0.9 | 2.6 | 0.00 | 0.01 | 0.01 | 19 | 1007.8 |
| 20260506022857 | 77 | 162 | 0.9 | 2.6 | 0.00 | 0.01 | 0.01 | 21 | 1007.8 |
| 20260506022758 | 78 | 162 | 2.6 | 3.5 | 0.00 | 0.01 | 0.01 | 21 | 1007.8 |
| 20260506022658 | 78 | 162 | 0.0 | 3.5 | 0.00 | 0.01 | 0.01 | 22 | 1007.7 |
| 20260506022556 | 78 | 162 | 0.0 | 3.5 | 0.00 | 0.01 | 0.01 | 22 | 1007.7 |
| 20260506022258 | 78 | 162 | 0.9 | 4.3 | 0.00 | 0.01 | 0.01 | 23 | 1007.7 |
| 20260506022157 | 78 | 161 | 0.9 | 4.3 | 0.00 | 0.01 | 0.01 | 24 | 1007.7 |
| 20260506022056 | 78 | 161 | 0.9 | 4.3 | 0.00 | 0.01 | 0.01 | 24 | 1007.7 |
| 20260506022000 | 78 | 162 | 0.9 | 4.3 | 0.00 | 0.01 | 0.01 | 24 | 1007.7 |
| 20260506021756 | 78 | 161 | 1.7 | 4.3 | 0.00 | 0.01 | 0.01 | 25 | 1007.7 |
| 20260506021655 | 78 | 162 | 0.0 | 4.3 | 0.00 | 0.01 | 0.01 | 26 | 1007.7 |
| 20260506021558 | 78 | 161 | 0.9 | 4.3 | 0.00 | 0.01 | 0.01 | 26 | 1007.7 |
| 20260506021458 | 78 | 164 | 0.0 | 4.3 | 0.00 | 0.01 | 0.01 | 26 | 1007.7 |
| 20260506021358 | 78 | 164 | 4.3 | 4.3 | 0.00 | 0.01 | 0.01 | 27 | 1007.7 |
| 20260506021255 | 78 | 164 | 0.0 | 3.5 | 0.00 | 0.01 | 0.01 | 27 | 1007.7 |
| 20260506021156 | 78 | 164 | 0.0 | 4.3 | 0.00 | 0.01 | 0.01 | 27 | 1007.7 |
| 20260506021058 | 78 | 164 | 0.0 | 5.2 | 0.00 | 0.01 | 0.01 | 27 | 1007.7 |
| 20260506020959 | 78 | 164 | 0.0 | 5.2 | 0.00 | 0.01 | 0.01 | 27 | 1007.7 |
| 20260506020855 | 78 | 164 | 0.9 | 5.2 | 0.00 | 0.01 | 0.01 | 28 | 1007.6 |
| 20260506020756 | 78 | 163 | 0.0 | 5.2 | 0.00 | 0.01 | 0.01 | 28 | 1007.7 |
| 20260506020657 | 78 | 163 | 0.9 | 5.2 | 0.00 | 0.01 | 0.01 | 28 | 1007.7 |
| 20260506020558 | 78 | 163 | 2.6 | 5.2 | 0.00 | 0.01 | 0.01 | 29 | 1007.7 |
| 20260506020456 | 78 | 172 | 2.6 | 5.2 | 0.00 | 0.01 | 0.01 | 29 | 1007.6 |
| 20260506020357 | 78 | 171 | 0.9 | 5.2 | 0.00 | 0.01 | 0.01 | 29 | 1007.6 |
| 20260506020258 | 78 | 171 | 0.9 | 5.2 | 0.00 | 0.01 | 0.01 | 29 | 1007.6 |
| 20260506020158 | 78 | 173 | 1.7 | 5.2 | 0.00 | 0.01 | 0.01 | 29 | 1007.6 |
| 20260506020055 | 78 | 181 | 2.6 | 4.3 | 0.00 | 0.01 | 0.01 | 29 | 1007.6 |
| 20260506015957 | 78 | 205 | 0.0 | 4.3 | 0.00 | 0.01 | 0.01 | 29 | 1007.5 |
| 20260506015858 | 78 | 205 | 0.9 | 4.3 | 0.00 | 0.01 | 0.01 | 29 | 1007.5 |
| 20260506015758 | 78 | 205 | 0.9 | 4.3 | 0.00 | 0.01 | 0.01 | 30 | 1007.4 |
| 20260506015655 | 78 | 204 | 0.0 | 4.3 | 0.00 | 0.01 | 0.01 | 30 | 1007.4 |
| 20260506015556 | 78 | 178 | 1.7 | 3.5 | 0.00 | 0.01 | 0.01 | 30 | 1007.4 |
| 20260506015457 | 78 | 175 | 0.9 | 3.5 | 0.00 | 0.01 | 0.01 | 31 | 1007.5 |
| 20260506015257 | 78 | 173 | 0.0 | 2.6 | 0.00 | 0.01 | 0.01 | 31 | 1007.4 |
| 20260506015158 | 78 | 173 | 0.9 | 2.6 | 0.00 | 0.01 | 0.01 | 32 | 1007.4 |
| 20260506015058 | 78 | 173 | 0.0 | 2.6 | 0.00 | 0.01 | 0.01 | 32 | 1007.4 |
| 20260506014959 | 78 | 173 | 0.0 | 2.6 | 0.00 | 0.01 | 0.01 | 32 | 1007.3 |
| 20260506014858 | 78 | 173 | 0.9 | 2.6 | 0.00 | 0.01 | 0.01 | 32 | 1007.3 |
| 20260506014657 | 78 | 173 | 0.0 | 2.6 | 0.00 | 0.01 | 0.01 | 33 | 1007.3 |
| 20260506014558 | 78 | 173 | 0.9 | 2.6 | 0.00 | 0.01 | 0.01 | 33 | 1007.2 |
| 20260506014458 | 79 | 173 | 0.9 | 2.6 | 0.00 | 0.01 | 0.01 | 33 | 1007.3 |
| 20260506014356 | 79 | 173 | 0.0 | 2.6 | 0.00 | 0.01 | 0.01 | 34 | 1007.2 |
| 20260506014257 | 79 | 173 | 0.0 | 2.6 | 0.00 | 0.01 | 0.01 | 34 | 1007.2 |
| 20260506014158 | 79 | 173 | 0.0 | 2.6 | 0.00 | 0.01 | 0.01 | 34 | 1007.2 |
| 20260506013957 | 79 | 173 | 0.9 | 2.6 | 0.00 | 0.01 | 0.01 | 34 | 1007.1 |
| 20260506013758 | 79 | 173 | 0.0 | 3.5 | 0.00 | 0.01 | 0.01 | 35 | 1007.1 |
| 20260506013655 | 79 | 173 | 2.6 | 3.5 | 0.00 | 0.01 | 0.01 | 35 | 1007.1 |
| 20260506013556 | 79 | 173 | 1.7 | 3.5 | 0.00 | 0.01 | 0.01 | 35 | 1007.1 |
| 20260506013358 | 79 | 173 | 0.0 | 3.5 | 0.00 | 0.01 | 0.01 | 35 | 1007.0 |
| 20260506013258 | 79 | 173 | 0.9 | 3.5 | 0.00 | 0.01 | 0.01 | 36 | 1007.0 |
| 20260506013056 | 79 | 173 | 0.9 | 3.5 | 0.00 | 0.01 | 0.01 | 36 | 1007.0 |
| 20260506012959 | 79 | 164 | 0.0 | 3.5 | 0.00 | 0.01 | 0.01 | 37 | 1007.0 |
| 20260506012756 | 79 | 164 | 0.9 | 4.3 | 0.00 | 0.01 | 0.01 | 37 | 1007.0 |
| 20260506012558 | 79 | 164 | 0.0 | 4.3 | 0.00 | 0.01 | 0.01 | 38 | 1006.9 |
| 20260506012356 | 79 | 164 | 0.9 | 4.3 | 0.00 | 0.01 | 0.01 | 38 | 1007.0 |
| 20260506012158 | 79 | 153 | 2.6 | 4.3 | 0.00 | 0.01 | 0.01 | 38 | 1006.9 |
| 20260506012056 | 79 | 151 | 0.9 | 4.3 | 0.00 | 0.01 | 0.01 | 39 | 1006.9 |
| 20260506011957 | 79 | 151 | 0.0 | 4.3 | 0.00 | 0.01 | 0.01 | 39 | 1006.9 |
| 20260506011857 | 79 | 219 | 0.9 | 4.3 | 0.00 | 0.01 | 0.01 | 39 | 1006.8 |
| 20260506011758 | 79 | 220 | 2.6 | 4.3 | 0.00 | 0.01 | 0.01 | 39 | 1006.8 |
| 20260506011657 | 79 | 233 | 0.0 | 4.3 | 0.00 | 0.01 | 0.01 | 40 | 1006.8 |
| 20260506011556 | 79 | 233 | 0.9 | 4.3 | 0.00 | 0.01 | 0.01 | 40 | 1006.8 |
| 20260506011456 | 79 | 233 | 0.9 | 4.3 | 0.00 | 0.01 | 0.01 | 40 | 1006.9 |
| 20260506011357 | 79 | 233 | 0.9 | 4.3 | 0.00 | 0.01 | 0.01 | 41 | 1006.8 |
| 20260506011258 | 79 | 233 | 3.5 | 4.3 | 0.00 | 0.01 | 0.01 | 41 | 1006.9 |
| 20260506011055 | 79 | 219 | 1.7 | 3.5 | 0.00 | 0.01 | 0.01 | 42 | 1006.8 |
| 20260506010856 | 79 | 225 | 0.0 | 3.5 | 0.00 | 0.01 | 0.01 | 42 | 1006.8 |
| 20260506010657 | 79 | 225 | 0.0 | 3.5 | 0.00 | 0.01 | 0.01 | 42 | 1006.8 |
| 20260506010558 | 79 | 225 | 0.0 | 3.5 | 0.00 | 0.01 | 0.01 | 43 | 1006.8 |
| 20260506010458 | 79 | 225 | 0.0 | 3.5 | 0.00 | 0.01 | 0.01 | 43 | 1006.9 |
| 20260506010255 | 79 | 227 | 0.0 | 4.3 | 0.00 | 0.01 | 0.01 | 43 | 1006.9 |
| 20260506010157 | 79 | 194 | 0.0 | 5.2 | 0.00 | 0.01 | 0.01 | 43 | 1006.8 |
| 20260506010057 | 79 | 194 | 1.7 | 5.2 | 0.00 | 0.01 | 0.01 | 44 | 1006.8 |
| 20260506010004 | 79 | 240 | 0.9 | 5.2 | 0.00 | 0.01 | 0.01 | 44 | 1006.8 |
| 20260506005857 | 79 | 240 | 0.0 | 5.2 | 0.00 | 0.01 | 0.01 | 44 | 1006.8 |
| 20260506005757 | 79 | 240 | 0.0 | 5.2 | 0.00 | 0.01 | 0.01 | 44 | 1006.8 |
| 20260506005658 | 79 | 240 | 0.0 | 5.2 | 0.00 | 0.01 | 0.01 | 44 | 1006.8 |
| 20260506005558 | 79 | 240 | 3.5 | 5.2 | 0.00 | 0.01 | 0.01 | 45 | 1006.7 |
| 20260506005459 | 79 | 240 | 2.6 | 7.0 | 0.00 | 0.01 | 0.01 | 45 | 1006.7 |
| 20260506005357 | 79 | 240 | 0.9 | 7.0 | 0.00 | 0.01 | 0.01 | 45 | 1006.6 |
| 20260506005256 | 79 | 162 | 3.5 | 7.0 | 0.00 | 0.01 | 0.01 | 45 | 1006.6 |
| 20260506005058 | 79 | 162 | 1.7 | 7.0 | 0.00 | 0.01 | 0.01 | 45 | 1006.6 |
| 20260506004958 | 79 | 162 | 0.9 | 7.0 | 0.00 | 0.01 | 0.01 | 45 | 1006.6 |
| 20260506004857 | 79 | 162 | 0.0 | 7.0 | 0.00 | 0.01 | 0.01 | 46 | 1006.6 |
| 20260506004800 | 79 | 162 | 0.9 | 7.0 | 0.00 | 0.01 | 0.01 | 46 | 1006.6 |
| 20260506004657 | 80 | 162 | 3.5 | 7.0 | 0.00 | 0.01 | 0.01 | 46 | 1006.6 |
| 20260506004557 | 80 | 212 | 1.7 | 5.2 | 0.00 | 0.01 | 0.01 | 46 | 1006.6 |
| 20260506004300 | 80 | 240 | 0.9 | 5.2 | 0.00 | 0.01 | 0.01 | 46 | 1006.5 |
| 20260506004158 | 80 | 240 | 0.0 | 5.2 | 0.00 | 0.01 | 0.01 | 46 | 1006.4 |
| 20260506004057 | 80 | 240 | 0.0 | 5.2 | 0.00 | 0.01 | 0.01 | 46 | 1006.4 |
| 20260506004000 | 80 | 240 | 0.0 | 5.2 | 0.00 | 0.01 | 0.01 | 46 | 1006.4 |
| 20260506003859 | 80 | 240 | 2.6 | 5.2 | 0.00 | 0.01 | 0.01 | 47 | 1006.4 |
| 20260506003757 | 80 | 202 | 1.7 | 5.2 | 0.00 | 0.01 | 0.01 | 47 | 1006.4 |
| 20260506003656 | 80 | 175 | 3.5 | 5.2 | 0.00 | 0.01 | 0.01 | 47 | 1006.4 |
| 20260506003559 | 80 | 208 | 0.0 | 4.3 | 0.00 | 0.01 | 0.01 | 47 | 1006.4 |
| 20260506003500 | 80 | 206 | 1.7 | 4.3 | 0.00 | 0.01 | 0.01 | 47 | 1006.5 |
| 20260506003257 | 80 | 208 | 0.9 | 4.3 | 0.00 | 0.01 | 0.01 | 47 | 1006.4 |
| 20260506003158 | 80 | 179 | 1.7 | 4.3 | 0.00 | 0.01 | 0.01 | 48 | 1006.4 |
| 20260506002959 | 80 | 173 | 2.6 | 4.3 | 0.00 | 0.01 | 0.01 | 48 | 1006.4 |
| 20260506002857 | 80 | 173 | 0.0 | 4.3 | 0.00 | 0.01 | 0.01 | 48 | 1006.4 |
| 20260506002757 | 80 | 173 | 2.6 | 4.3 | 0.00 | 0.01 | 0.01 | 49 | 1006.4 |
| 20260506002658 | 80 | 217 | 0.9 | 3.5 | 0.00 | 0.01 | 0.01 | 49 | 1006.4 |
| 20260506002602 | 80 | 217 | 1.7 | 4.3 | 0.00 | 0.01 | 0.01 | 49 | 1006.4 |
| 20260506002457 | 80 | 218 | 0.9 | 4.3 | 0.00 | 0.01 | 0.01 | 49 | 1006.4 |
| 20260506002358 | 80 | 189 | 0.9 | 4.3 | 0.00 | 0.01 | 0.01 | 49 | 1006.3 |
| 20260506002258 | 80 | 189 | 0.0 | 4.3 | 0.00 | 0.01 | 0.01 | 49 | 1006.3 |
| 20260506002159 | 80 | 189 | 0.9 | 4.3 | 0.00 | 0.01 | 0.01 | 50 | 1006.4 |
| 20260506002057 | 80 | 188 | 1.7 | 4.3 | 0.00 | 0.01 | 0.01 | 50 | 1006.4 |
| 20260506001959 | 80 | 187 | 2.6 | 4.3 | 0.00 | 0.01 | 0.01 | 50 | 1006.4 |
| 20260506001857 | 80 | 178 | 1.7 | 4.3 | 0.00 | 0.01 | 0.01 | 50 | 1006.3 |
| 20260506001758 | 80 | 167 | 1.7 | 4.3 | 0.00 | 0.01 | 0.01 | 50 | 1006.3 |
| 20260506001657 | 80 | 167 | 0.9 | 4.3 | 0.00 | 0.01 | 0.01 | 51 | 1006.3 |
| 20260506001557 | 80 | 195 | 3.5 | 4.3 | 0.00 | 0.01 | 0.01 | 50 | 1006.4 |
| 20260506001457 | 80 | 169 | 0.9 | 3.5 | 0.00 | 0.01 | 0.01 | 51 | 1006.3 |
| 20260506001357 | 80 | 169 | 2.6 | 3.5 | 0.00 | 0.01 | 0.01 | 51 | 1006.4 |
| 20260506001257 | 80 | 169 | 0.0 | 3.5 | 0.00 | 0.01 | 0.01 | 51 | 1006.4 |
| 20260506001157 | 80 | 169 | 0.9 | 3.5 | 0.00 | 0.01 | 0.01 | 51 | 1006.4 |
| 20260506001057 | 80 | 169 | 0.0 | 3.5 | 0.00 | 0.01 | 0.01 | 51 | 1006.4 |
| 20260506000958 | 80 | 169 | 0.0 | 3.5 | 0.00 | 0.01 | 0.01 | 51 | 1006.4 |
| 20260506000857 | 80 | 167 | 0.0 | 3.5 | 0.00 | 0.01 | 0.01 | 51 | 1006.4 |
| 20260506000757 | 80 | 167 | 1.7 | 4.3 | 0.00 | 0.01 | 0.01 | 51 | 1006.3 |
| 20260506000657 | 80 | 167 | 0.0 | 4.3 | 0.00 | 0.01 | 0.01 | 51 | 1006.3 |
| 20260506000457 | 80 | 167 | 1.7 | 7.0 | 0.00 | 0.01 | 0.01 | 51 | 1006.3 |
| 20260506000257 | 80 | 165 | 0.0 | 7.0 | 0.00 | 0.01 | 0.01 | 51 | 1006.2 |
| 20260506000157 | 81 | 165 | 0.0 | 7.8 | 0.00 | 0.01 | 0.01 | 51 | 1006.2 |
| 20260506000057 | 81 | 161 | 3.5 | 7.8 | 0.00 | 0.01 | 0.01 | 52 | 1006.2 |
| 20260505235657 | 81 | 240 | 7.0 | 7.8 | 0.00 | 0.01 | 0.01 | 52 | 1006.2 |
| 20260505235357 | 81 | 169 | 0.9 | 7.8 | 0.00 | 0.01 | 0.01 | 53 | 1006.1 |
| 20260505235158 | 81 | 234 | 0.0 | 4.3 | 0.00 | 0.01 | 0.01 | 53 | 1006.2 |
| 20260505235057 | 81 | 234 | 0.9 | 4.3 | 0.00 | 0.01 | 0.01 | 53 | 1006.2 |
| 20260505234959 | 81 | 235 | 0.9 | 4.3 | 0.00 | 0.01 | 0.01 | 54 | 1006.2 |
| 20260505234858 | 81 | 235 | 3.5 | 4.3 | 0.00 | 0.01 | 0.01 | 54 | 1006.2 |
| 20260505234757 | 81 | 232 | 1.7 | 4.3 | 0.00 | 0.01 | 0.01 | 54 | 1006.2 |
| 20260505234557 | 81 | 202 | 4.3 | 4.3 | 0.00 | 0.01 | 0.01 | 54 | 1006.3 |
| 20260505234457 | 81 | 184 | 0.9 | 3.5 | 0.00 | 0.01 | 0.01 | 54 | 1006.3 |
| 20260505234357 | 81 | 189 | 0.9 | 3.5 | 0.00 | 0.01 | 0.01 | 54 | 1006.3 |
| 20260505234057 | 81 | 189 | 0.0 | 3.5 | 0.00 | 0.01 | 0.01 | 54 | 1006.3 |
| 20260505233958 | 81 | 189 | 0.9 | 3.5 | 0.00 | 0.01 | 0.01 | 53 | 1006.3 |
| 20260505233857 | 81 | 229 | 0.0 | 2.6 | 0.00 | 0.01 | 0.01 | 53 | 1006.2 |
| 20260505233656 | 81 | 210 | 0.0 | 4.3 | 0.00 | 0.01 | 0.01 | 53 | 1006.2 |
| 20260505233457 | 81 | 210 | 2.6 | 4.3 | 0.00 | 0.01 | 0.01 | 54 | 1006.2 |
| 20260505233358 | 81 | 211 | 1.7 | 4.3 | 0.00 | 0.01 | 0.01 | 54 | 1006.3 |
| 20260505233256 | 81 | 211 | 0.0 | 4.3 | 0.00 | 0.01 | 0.01 | 54 | 1006.2 |
| 20260505233157 | 81 | 211 | 0.0 | 4.3 | 0.00 | 0.01 | 0.01 | 54 | 1006.3 |
| 20260505233056 | 81 | 211 | 0.0 | 4.3 | 0.00 | 0.01 | 0.01 | 54 | 1006.2 |
| 20260505232757 | 81 | 169 | 0.0 | 3.5 | 0.00 | 0.01 | 0.01 | 54 | 1006.2 |
| 20260505232657 | 81 | 169 | 0.9 | 3.5 | 0.00 | 0.01 | 0.01 | 54 | 1006.2 |
| 20260505232559 | 81 | 169 | 0.9 | 5.2 | 0.00 | 0.01 | 0.01 | 54 | 1006.2 |
| 20260505232457 | 81 | 208 | 0.9 | 5.2 | 0.00 | 0.01 | 0.01 | 54 | 1006.2 |
| 20260505232357 | 81 | 222 | 0.0 | 5.2 | 0.00 | 0.01 | 0.01 | 54 | 1006.1 |
| 20260505232257 | 81 | 221 | 1.7 | 5.2 | 0.00 | 0.01 | 0.01 | 54 | 1006.2 |
| 20260505232159 | 81 | 240 | 0.0 | 5.2 | 0.00 | 0.01 | 0.01 | 54 | 1006.2 |
| 20260505231959 | 81 | 240 | 0.0 | 6.1 | 0.00 | 0.01 | 0.01 | 55 | 1006.2 |
| 20260505231757 | 82 | 240 | 1.7 | 6.1 | 0.00 | 0.01 | 0.01 | 55 | 1006.3 |
| 20260505231656 | 82 | 188 | 2.6 | 6.1 | 0.00 | 0.01 | 0.01 | 55 | 1006.2 |
| 20260505231456 | 82 | 184 | 0.9 | 6.1 | 0.00 | 0.01 | 0.01 | 55 | 1006.3 |
| 20260505231357 | 82 | 184 | 1.7 | 6.1 | 0.00 | 0.01 | 0.01 | 55 | 1006.2 |
| 20260505231258 | 82 | 178 | 0.0 | 6.1 | 0.00 | 0.01 | 0.01 | 55 | 1006.2 |
| 20260505231159 | 82 | 179 | 0.0 | 6.1 | 0.00 | 0.01 | 0.01 | 55 | 1006.3 |
| 20260505231057 | 82 | 166 | 4.3 | 4.3 | 0.00 | 0.01 | 0.01 | 55 | 1006.3 |
| 20260505230959 | 82 | 168 | 3.5 | 5.2 | 0.00 | 0.01 | 0.01 | 55 | 1006.2 |
| 20260505230857 | 82 | 167 | 1.7 | 5.2 | 0.00 | 0.01 | 0.01 | 55 | 1006.3 |
| 20260505230758 | 82 | 174 | 1.7 | 5.2 | 0.00 | 0.01 | 0.01 | 55 | 1006.2 |
| 20260505230657 | 82 | 171 | 1.7 | 5.2 | 0.00 | 0.01 | 0.01 | 54 | 1006.3 |
| 20260505230557 | 82 | 148 | 3.5 | 6.1 | 0.00 | 0.01 | 0.01 | 54 | 1006.2 |
| 20260505230457 | 82 | 174 | 0.9 | 6.1 | 0.00 | 0.01 | 0.01 | 54 | 1006.2 |
| 20260505230356 | 82 | 173 | 0.9 | 6.1 | 0.00 | 0.01 | 0.01 | 54 | 1006.3 |
| 20260505230159 | 82 | 169 | 0.0 | 6.1 | 0.00 | 0.01 | 0.01 | 53 | 1006.2 |
| 20260505230057 | 81 | 156 | 3.5 | 6.1 | 0.00 | 0.01 | 0.01 | 53 | 1006.2 |
| 20260505230005 | 81 | 161 | 0.0 | 6.1 | 0.00 | 0.01 | 0.01 | 53 | 1006.2 |
| 20260505225857 | 81 | 199 | 3.5 | 6.1 | 0.00 | 0.01 | 0.01 | 53 | 1006.2 |
| 20260505225756 | 81 | 213 | 6.1 | 6.1 | 0.00 | 0.01 | 0.01 | 53 | 1006.2 |
| 20260505225558 | 81 | 210 | 0.0 | 4.3 | 0.00 | 0.01 | 0.01 | 53 | 1006.2 |
| 20260505225458 | 81 | 210 | 1.7 | 4.3 | 0.00 | 0.01 | 0.01 | 53 | 1006.2 |
| 20260505225356 | 81 | 250 | 1.7 | 4.3 | 0.00 | 0.01 | 0.01 | 53 | 1006.2 |
| 20260505225255 | 82 | 218 | 1.7 | 4.3 | 0.00 | 0.01 | 0.01 | 53 | 1006.2 |
| 20260505225156 | 82 | 167 | 0.9 | 3.5 | 0.00 | 0.01 | 0.01 | 53 | 1006.3 |
| 20260505225058 | 82 | 167 | 0.9 | 3.5 | 0.00 | 0.01 | 0.01 | 53 | 1006.3 |
| 20260505224959 | 82 | 160 | 2.6 | 3.5 | 0.00 | 0.01 | 0.01 | 53 | 1006.2 |
| 20260505224756 | 82 | 162 | 0.9 | 4.3 | 0.00 | 0.01 | 0.01 | 53 | 1006.4 |
| 20260505224657 | 82 | 162 | 0.9 | 4.3 | 0.00 | 0.01 | 0.01 | 53 | 1006.4 |
| 20260505224558 | 82 | 203 | 0.9 | 4.3 | 0.00 | 0.01 | 0.01 | 53 | 1006.5 |
| 20260505224458 | 82 | 204 | 0.9 | 4.3 | 0.00 | 0.01 | 0.01 | 53 | 1006.4 |
| 20260505224356 | 82 | 204 | 1.7 | 4.3 | 0.00 | 0.01 | 0.01 | 54 | 1006.5 |
| 20260505224255 | 82 | 203 | 0.9 | 6.1 | 0.00 | 0.01 | 0.01 | 54 | 1006.4 |
| 20260505224158 | 82 | 129 | 0.9 | 6.1 | 0.00 | 0.01 | 0.01 | 54 | 1006.4 |
| 20260505223957 | 82 | 207 | 2.6 | 6.1 | 0.00 | 0.01 | 0.01 | 53 | 1006.4 |
| 20260505223855 | 82 | 167 | 0.9 | 6.1 | 0.00 | 0.01 | 0.01 | 52 | 1006.4 |
| 20260505223758 | 82 | 167 | 1.7 | 6.1 | 0.00 | 0.01 | 0.01 | 52 | 1006.4 |
| 20260505223657 | 82 | 155 | 2.6 | 6.1 | 0.00 | 0.01 | 0.01 | 52 | 1006.4 |
| 20260505223556 | 82 | 154 | 0.9 | 6.1 | 0.00 | 0.01 | 0.01 | 52 | 1006.3 |
| 20260505223456 | 82 | 199 | 0.9 | 6.1 | 0.00 | 0.01 | 0.01 | 52 | 1006.3 |
| 20260505223358 | 82 | 199 | 1.7 | 6.1 | 0.00 | 0.01 | 0.01 | 52 | 1006.3 |
| 20260505223155 | 82 | 199 | 0.9 | 6.1 | 0.00 | 0.01 | 0.01 | 52 | 1006.2 |
| 20260505222959 | 82 | 199 | 0.0 | 6.1 | 0.00 | 0.01 | 0.01 | 53 | 1006.3 |
| 20260505222857 | 82 | 200 | 1.7 | 6.1 | 0.00 | 0.01 | 0.01 | 53 | 1006.3 |
| 20260505222655 | 82 | 229 | 1.7 | 6.1 | 0.00 | 0.01 | 0.01 | 53 | 1006.4 |
| 20260505222558 | 82 | 206 | 0.9 | 6.1 | 0.00 | 0.01 | 0.01 | 53 | 1006.3 |
| 20260505222457 | 82 | 206 | 1.7 | 6.1 | 0.00 | 0.01 | 0.01 | 53 | 1006.4 |
| 20260505222355 | 82 | 221 | 1.7 | 6.1 | 0.00 | 0.01 | 0.01 | 53 | 1006.4 |
| 20260505222255 | 82 | 159 | 0.9 | 6.1 | 0.00 | 0.01 | 0.01 | 53 | 1006.4 |
| 20260505222158 | 82 | 212 | 1.7 | 6.1 | 0.00 | 0.01 | 0.01 | 53 | 1006.3 |
| 20260505222057 | 82 | 233 | 0.0 | 6.1 | 0.00 | 0.01 | 0.01 | 53 | 1006.3 |
| 20260505222001 | 82 | 233 | 0.9 | 6.1 | 0.00 | 0.01 | 0.01 | 53 | 1006.3 |
| 20260505221758 | 82 | 235 | 0.0 | 6.1 | 0.00 | 0.01 | 0.01 | 53 | 1006.4 |
| 20260505221657 | 82 | 235 | 1.7 | 6.1 | 0.00 | 0.01 | 0.01 | 54 | 1006.4 |
| 20260505221558 | 82 | 206 | 5.2 | 6.1 | 0.00 | 0.01 | 0.01 | 54 | 1006.4 |
| 20260505221456 | 82 | 168 | 1.7 | 6.1 | 0.00 | 0.01 | 0.01 | 54 | 1006.4 |
| 20260505221358 | 82 | 168 | 0.9 | 6.1 | 0.00 | 0.01 | 0.01 | 54 | 1006.4 |
| 20260505221156 | 82 | 163 | 0.0 | 6.1 | 0.00 | 0.01 | 0.01 | 54 | 1006.6 |
| 20260505221055 | 82 | 162 | 0.0 | 6.1 | 0.00 | 0.01 | 0.01 | 54 | 1006.6 |
| 20260505220959 | 82 | 166 | 0.0 | 6.1 | 0.00 | 0.01 | 0.01 | 55 | 1006.6 |
| 20260505220756 | 82 | 166 | 1.7 | 6.1 | 0.00 | 0.01 | 0.01 | 55 | 1006.5 |
| 20260505220656 | 82 | 169 | 2.6 | 6.1 | 0.00 | 0.01 | 0.01 | 55 | 1006.5 |
| 20260505220558 | 82 | 191 | 2.6 | 5.2 | 0.00 | 0.01 | 0.01 | 55 | 1006.5 |
| 20260505220457 | 82 | 236 | 0.9 | 5.2 | 0.00 | 0.01 | 0.01 | 55 | 1006.5 |
| 20260505220255 | 82 | 250 | 0.9 | 5.2 | 0.00 | 0.01 | 0.01 | 55 | 1006.6 |
| 20260505220158 | 83 | 189 | 0.9 | 4.3 | 0.00 | 0.01 | 0.01 | 54 | 1006.6 |
| 20260505220057 | 83 | 217 | 0.9 | 4.3 | 0.00 | 0.01 | 0.01 | 54 | 1006.6 |
| 20260505215855 | 83 | 209 | 0.9 | 4.3 | 0.00 | 0.01 | 0.01 | 53 | 1006.7 |
| 20260505215756 | 83 | 209 | 0.9 | 4.3 | 0.00 | 0.01 | 0.01 | 53 | 1006.6 |
| 20260505215558 | 83 | 209 | 0.0 | 4.3 | 0.00 | 0.01 | 0.01 | 53 | 1006.6 |
| 20260505215456 | 83 | 209 | 0.9 | 4.3 | 0.00 | 0.01 | 0.01 | 54 | 1006.5 |
| 20260505215356 | 83 | 191 | 0.0 | 4.3 | 0.00 | 0.01 | 0.01 | 54 | 1006.6 |
| 20260505215257 | 83 | 191 | 0.9 | 4.3 | 0.00 | 0.01 | 0.01 | 54 | 1006.5 |
| 20260505215158 | 83 | 195 | 1.7 | 4.3 | 0.00 | 0.01 | 0.01 | 54 | 1006.5 |
| 20260505215055 | 83 | 156 | 0.9 | 3.5 | 0.00 | 0.01 | 0.01 | 54 | 1006.6 |
| 20260505214957 | 83 | 262 | 0.9 | 3.5 | 0.00 | 0.01 | 0.01 | 54 | 1006.6 |
| 20260505214858 | 83 | 197 | 1.7 | 3.5 | 0.00 | 0.01 | 0.01 | 54 | 1006.6 |
| 20260505214758 | 83 | 198 | 0.0 | 3.5 | 0.00 | 0.01 | 0.01 | 54 | 1006.6 |
| 20260505214655 | 83 | 198 | 0.0 | 3.5 | 0.00 | 0.01 | 0.01 | 54 | 1006.6 |
| 20260505214556 | 83 | 198 | 1.7 | 3.5 | 0.00 | 0.01 | 0.01 | 54 | 1006.6 |
| 20260505214358 | 83 | 189 | 0.9 | 4.3 | 0.00 | 0.01 | 0.01 | 55 | 1006.7 |
| 20260505214255 | 83 | 189 | 0.9 | 4.3 | 0.00 | 0.01 | 0.01 | 55 | 1006.7 |
| 20260505214156 | 83 | 190 | 2.6 | 4.3 | 0.00 | 0.01 | 0.01 | 55 | 1006.7 |
| 20260505214058 | 83 | 204 | 0.9 | 4.3 | 0.00 | 0.01 | 0.01 | 55 | 1006.7 |
| 20260505214000 | 83 | 204 | 1.7 | 4.3 | 0.00 | 0.01 | 0.01 | 55 | 1006.7 |
| 20260505213856 | 83 | 202 | 0.9 | 4.3 | 0.00 | 0.01 | 0.01 | 55 | 1006.8 |
| 20260505213755 | 83 | 202 | 0.9 | 4.3 | 0.00 | 0.01 | 0.01 | 56 | 1006.8 |
| 20260505213655 | 83 | 148 | 0.9 | 4.3 | 0.00 | 0.01 | 0.01 | 56 | 1006.8 |
| 20260505213558 | 83 | 175 | 0.9 | 4.3 | 0.00 | 0.01 | 0.01 | 56 | 1006.8 |
| 20260505213458 | 83 | 173 | 0.9 | 4.3 | 0.00 | 0.01 | 0.01 | 56 | 1006.8 |
| 20260505213357 | 83 | 173 | 0.9 | 4.3 | 0.00 | 0.01 | 0.01 | 57 | 1006.9 |
| 20260505213258 | 83 | 175 | 2.6 | 4.3 | 0.00 | 0.01 | 0.01 | 56 | 1006.9 |
| 20260505212957 | 83 | 182 | 1.7 | 6.1 | 0.00 | 0.01 | 0.01 | 56 | 1007.0 |
| 20260505212856 | 83 | 182 | 0.9 | 6.1 | 0.00 | 0.01 | 0.01 | 57 | 1007.0 |
| 20260505212759 | 83 | 176 | 0.9 | 6.1 | 0.00 | 0.01 | 0.01 | 57 | 1007.0 |
| 20260505212657 | 83 | 185 | 2.6 | 6.1 | 0.00 | 0.01 | 0.01 | 57 | 1007.0 |
| 20260505212556 | 83 | 196 | 0.9 | 6.1 | 0.00 | 0.01 | 0.01 | 56 | 1007.0 |
| 20260505212457 | 83 | 196 | 0.9 | 6.1 | 0.00 | 0.01 | 0.01 | 57 | 1007.0 |
| 20260505212358 | 83 | 196 | 0.9 | 6.1 | 0.00 | 0.01 | 0.01 | 57 | 1007.0 |
| 20260505212258 | 83 | 170 | 1.7 | 6.1 | 0.00 | 0.01 | 0.01 | 57 | 1007.0 |
| 20260505212156 | 83 | 181 | 2.6 | 4.3 | 0.00 | 0.01 | 0.01 | 57 | 1007.0 |
| 20260505212055 | 83 | 185 | 0.0 | 4.3 | 0.00 | 0.01 | 0.01 | 57 | 1007.0 |
| 20260505211959 | 83 | 185 | 0.9 | 4.3 | 0.00 | 0.01 | 0.01 | 58 | 1007.0 |
| 20260505211858 | 83 | 177 | 0.9 | 4.3 | 0.00 | 0.01 | 0.01 | 58 | 1007.0 |
| 20260505211756 | 83 | 218 | 0.0 | 4.3 | 0.00 | 0.01 | 0.01 | 58 | 1007.0 |
| 20260505211558 | 83 | 217 | 1.7 | 5.2 | 0.00 | 0.01 | 0.01 | 58 | 1007.0 |
| 20260505211458 | 83 | 127 | 0.9 | 5.2 | 0.00 | 0.01 | 0.01 | 58 | 1007.0 |
| 20260505211255 | 83 | 164 | 1.7 | 5.2 | 0.00 | 0.01 | 0.01 | 58 | 1007.0 |
| 20260505211158 | 83 | 163 | 2.6 | 5.2 | 0.00 | 0.01 | 0.01 | 58 | 1007.0 |
| 20260505211057 | 83 | 163 | 0.9 | 5.2 | 0.00 | 0.01 | 0.01 | 57 | 1007.0 |
| 20260505210957 | 83 | 161 | 1.7 | 6.1 | 0.00 | 0.01 | 0.01 | 58 | 1007.1 |
| 20260505210855 | 83 | 159 | 1.7 | 6.1 | 0.00 | 0.01 | 0.01 | 57 | 1007.1 |
| 20260505210756 | 83 | 169 | 2.6 | 6.1 | 0.00 | 0.01 | 0.01 | 56 | 1007.1 |
| 20260505210556 | 83 | 183 | 0.9 | 6.1 | 0.00 | 0.01 | 0.01 | 57 | 1007.1 |
| 20260505210358 | 83 | 181 | 1.7 | 6.1 | 0.00 | 0.01 | 0.01 | 56 | 1007.1 |
| 20260505210257 | 83 | 181 | 0.0 | 6.1 | 0.00 | 0.01 | 0.01 | 57 | 1007.1 |
| 20260505210158 | 83 | 183 | 2.6 | 6.1 | 0.00 | 0.01 | 0.01 | 56 | 1007.2 |
| 20260505210055 | 83 | 250 | 0.9 | 5.2 | 0.00 | 0.01 | 0.01 | 56 | 1007.2 |
| 20260505210009 | 83 | 250 | 0.0 | 5.2 | 0.00 | 0.01 | 0.01 | 56 | 1007.2 |
| 20260505205857 | 83 | 250 | 3.5 | 5.2 | 0.00 | 0.01 | 0.01 | 56 | 1007.3 |
| 20260505205458 | 83 | 339 | 1.7 | 5.2 | 0.00 | 0.01 | 0.01 | 55 | 1007.4 |
| 20260505205357 | 83 | 341 | 0.9 | 5.2 | 0.00 | 0.01 | 0.01 | 55 | 1007.3 |
| 20260505205156 | 83 | 178 | 2.6 | 5.2 | 0.00 | 0.01 | 0.01 | 56 | 1007.3 |
| 20260505205056 | 83 | 177 | 4.3 | 5.2 | 0.00 | 0.01 | 0.01 | 55 | 1007.4 |
| 20260505204959 | 83 | 225 | 1.7 | 5.2 | 0.00 | 0.01 | 0.01 | 55 | 1007.4 |
| 20260505204855 | 83 | 179 | 0.0 | 4.3 | 0.00 | 0.01 | 0.01 | 55 | 1007.3 |
| 20260505204756 | 83 | 183 | 0.0 | 4.3 | 0.00 | 0.01 | 0.01 | 55 | 1007.3 |
| 20260505204657 | 84 | 184 | 1.7 | 4.3 | 0.00 | 0.01 | 0.01 | 55 | 1007.3 |
| 20260505204556 | 84 | 186 | 0.9 | 4.3 | 0.00 | 0.01 | 0.01 | 55 | 1007.3 |
| 20260505204456 | 84 | 230 | 2.6 | 4.3 | 0.00 | 0.01 | 0.01 | 56 | 1007.3 |
| 20260505204356 | 84 | 230 | 0.9 | 4.3 | 0.00 | 0.01 | 0.01 | 56 | 1007.3 |
| 20260505204257 | 84 | 230 | 0.0 | 7.0 | 0.00 | 0.01 | 0.01 | 56 | 1007.4 |
| 20260505204158 | 84 | 230 | 0.0 | 7.0 | 0.00 | 0.01 | 0.01 | 56 | 1007.4 |
| 20260505204056 | 84 | 240 | 0.9 | 7.0 | 0.00 | 0.01 | 0.01 | 56 | 1007.4 |
| 20260505203957 | 84 | 185 | 2.6 | 7.0 | 0.00 | 0.01 | 0.01 | 55 | 1007.5 |
| 20260505203857 | 84 | 97 | 0.9 | 7.0 | 0.00 | 0.01 | 0.01 | 55 | 1007.6 |
| 20260505203758 | 84 | 97 | 1.7 | 7.0 | 0.00 | 0.01 | 0.01 | 55 | 1007.6 |
| 20260505203655 | 84 | 96 | 0.9 | 7.0 | 0.00 | 0.01 | 0.01 | 54 | 1007.7 |
| 20260505203556 | 84 | 69 | 0.9 | 7.0 | 0.00 | 0.01 | 0.01 | 54 | 1007.7 |
| 20260505203458 | 84 | 69 | 0.0 | 7.0 | 0.00 | 0.01 | 0.01 | 54 | 1007.7 |
| 20260505203255 | 83 | 198 | 0.0 | 6.1 | 0.00 | 0.01 | 0.01 | 54 | 1007.7 |
| 20260505203156 | 83 | 197 | 0.9 | 6.1 | 0.00 | 0.01 | 0.01 | 54 | 1007.7 |
| 20260505203057 | 83 | 218 | 0.0 | 6.1 | 0.00 | 0.01 | 0.01 | 55 | 1007.6 |
| 20260505202959 | 83 | 218 | 0.9 | 6.1 | 0.00 | 0.01 | 0.01 | 55 | 1007.6 |
| 20260505202756 | 83 | 214 | 0.9 | 6.1 | 0.00 | 0.01 | 0.01 | 55 | 1007.7 |
| 20260505202458 | 83 | 183 | 3.5 | 4.3 | 0.00 | 0.01 | 0.01 | 55 | 1007.8 |
| 20260505202355 | 83 | 183 | 3.5 | 4.3 | 0.00 | 0.01 | 0.01 | 55 | 1007.8 |
| 20260505202158 | 83 | 147 | 1.7 | 4.3 | 0.00 | 0.01 | 0.01 | 54 | 1007.8 |
| 20260505202058 | 83 | 146 | 2.6 | 4.3 | 0.00 | 0.01 | 0.01 | 53 | 1007.9 |
| 20260505201959 | 83 | 254 | 1.7 | 6.1 | 0.00 | 0.01 | 0.01 | 53 | 1007.9 |
| 20260505201857 | 83 | 256 | 1.7 | 6.1 | 0.00 | 0.01 | 0.01 | 53 | 1007.9 |
| 20260505201758 | 83 | 273 | 2.6 | 6.1 | 0.00 | 0.01 | 0.01 | 53 | 1007.8 |
| 20260505201655 | 83 | 162 | 3.5 | 6.1 | 0.00 | 0.01 | 0.01 | 52 | 1007.9 |
| 20260505201556 | 83 | 183 | 2.6 | 6.1 | 0.00 | 0.01 | 0.01 | 52 | 1007.9 |
| 20260505201457 | 83 | 198 | 1.7 | 6.1 | 0.00 | 0.01 | 0.01 | 53 | 1007.9 |
| 20260505201358 | 83 | 198 | 2.6 | 6.1 | 0.00 | 0.01 | 0.01 | 53 | 1007.9 |
| 20260505201257 | 83 | 202 | 2.6 | 6.1 | 0.00 | 0.01 | 0.01 | 53 | 1007.9 |
| 20260505201156 | 83 | 196 | 2.6 | 6.1 | 0.00 | 0.01 | 0.01 | 53 | 1007.9 |
| 20260505200959 | 83 | 260 | 2.6 | 4.3 | 0.00 | 0.01 | 0.01 | 53 | 1007.9 |
| 20260505200855 | 83 | 204 | 0.0 | 3.5 | 0.00 | 0.01 | 0.01 | 52 | 1007.9 |
| 20260505200756 | 83 | 204 | 0.9 | 3.5 | 0.00 | 0.01 | 0.01 | 52 | 1007.9 |
| 20260505200558 | 83 | 206 | 1.7 | 3.5 | 0.00 | 0.01 | 0.01 | 52 | 1008.0 |
| 20260505200457 | 83 | 206 | 0.0 | 3.5 | 0.00 | 0.01 | 0.01 | 52 | 1008.0 |
| 20260505200356 | 83 | 206 | 0.9 | 3.5 | 0.00 | 0.01 | 0.01 | 53 | 1008.0 |
| 20260505200255 | 83 | 206 | 0.0 | 4.3 | 0.00 | 0.01 | 0.01 | 54 | 1008.0 |
| 20260505200158 | 83 | 206 | 1.7 | 4.3 | 0.00 | 0.01 | 0.01 | 54 | 1008.0 |
| 20260505200057 | 83 | 177 | 0.9 | 4.3 | 0.00 | 0.01 | 0.01 | 54 | 1008.0 |
| 20260505200004 | 83 | 177 | 2.6 | 4.3 | 0.00 | 0.01 | 0.01 | 54 | 1008.0 |
| 20260505195858 | 83 | 179 | 0.9 | 4.3 | 0.00 | 0.01 | 0.01 | 55 | 1008.0 |
| 20260505195759 | 83 | 178 | 1.7 | 4.3 | 0.00 | 0.01 | 0.01 | 54 | 1007.9 |
| 20260505195658 | 83 | 178 | 0.0 | 4.3 | 0.00 | 0.01 | 0.01 | 55 | 1007.9 |
| 20260505195558 | 83 | 177 | 1.7 | 4.3 | 0.00 | 0.01 | 0.01 | 54 | 1007.9 |
| 20260505195456 | 83 | 179 | 2.6 | 4.3 | 0.00 | 0.01 | 0.01 | 55 | 1007.9 |
| 20260505195357 | 84 | 189 | 2.6 | 4.3 | 0.00 | 0.01 | 0.01 | 55 | 1007.9 |
| 20260505195258 | 84 | 311 | 1.7 | 4.3 | 0.00 | 0.01 | 0.01 | 55 | 1007.9 |
| 20260505195157 | 84 | 314 | 0.9 | 4.3 | 0.00 | 0.01 | 0.01 | 56 | 1007.9 |
| 20260505195013 | 84 | 314 | 0.0 | 6.1 | 0.00 | 0.01 | 0.01 | 55 | 1007.9 |
| 20260505194858 | 84 | 314 | 0.9 | 6.1 | 0.00 | 0.01 | 0.01 | 56 | 1008.0 |
| 20260505194758 | 84 | 314 | 0.0 | 6.1 | 0.00 | 0.01 | 0.01 | 56 | 1008.0 |
| 20260505194658 | 84 | 187 | 0.9 | 6.1 | 0.00 | 0.01 | 0.01 | 56 | 1008.0 |
| 20260505194557 | 84 | 187 | 0.9 | 6.1 | 0.00 | 0.01 | 0.01 | 55 | 1008.1 |
| 20260505194457 | 83 | 170 | 1.7 | 6.1 | 0.00 | 0.01 | 0.01 | 55 | 1008.0 |
| 20260505194358 | 83 | 170 | 1.7 | 6.1 | 0.00 | 0.01 | 0.01 | 55 | 1008.0 |
| 20260505194156 | 83 | 169 | 6.1 | 6.1 | 0.00 | 0.01 | 0.01 | 54 | 1008.1 |
| 20260505194056 | 83 | 257 | 0.0 | 3.5 | 0.00 | 0.01 | 0.01 | 54 | 1008.1 |
| 20260505193958 | 83 | 257 | 0.0 | 4.3 | 0.00 | 0.01 | 0.01 | 54 | 1008.1 |
| 20260505193858 | 83 | 257 | 0.9 | 4.3 | 0.00 | 0.01 | 0.01 | 55 | 1008.1 |
| 20260505193757 | 83 | 257 | 0.0 | 4.3 | 0.00 | 0.01 | 0.01 | 55 | 1008.1 |
| 20260505193658 | 83 | 257 | 2.6 | 4.3 | 0.00 | 0.01 | 0.01 | 55 | 1008.2 |
| 20260505193558 | 83 | 191 | 0.9 | 4.3 | 0.00 | 0.01 | 0.01 | 55 | 1008.2 |
| 20260505193358 | 83 | 185 | 0.9 | 4.3 | 0.00 | 0.01 | 0.01 | 55 | 1008.2 |
| 20260505193256 | 83 | 185 | 2.6 | 4.3 | 0.00 | 0.01 | 0.01 | 54 | 1008.3 |
| 20260505193057 | 83 | 183 | 1.7 | 3.5 | 0.00 | 0.01 | 0.01 | 53 | 1008.2 |
| 20260505192959 | 83 | 183 | 1.7 | 3.5 | 0.00 | 0.01 | 0.01 | 53 | 1008.3 |
| 20260505192856 | 83 | 183 | 0.9 | 3.5 | 0.00 | 0.01 | 0.01 | 53 | 1008.3 |
| 20260505192658 | 83 | 183 | 0.0 | 3.5 | 0.00 | 0.01 | 0.01 | 53 | 1008.3 |
| 20260505192558 | 83 | 183 | 0.9 | 3.5 | 0.00 | 0.01 | 0.01 | 53 | 1008.3 |
| 20260505192458 | 83 | 183 | 2.6 | 3.5 | 0.00 | 0.01 | 0.01 | 53 | 1008.4 |
| 20260505192358 | 83 | 184 | 0.0 | 4.3 | 0.00 | 0.01 | 0.01 | 53 | 1008.4 |
| 20260505192258 | 83 | 184 | 0.0 | 4.3 | 0.00 | 0.01 | 0.01 | 53 | 1008.4 |
| 20260505192058 | 83 | 184 | 0.9 | 6.1 | 0.00 | 0.01 | 0.01 | 52 | 1008.4 |
| 20260505192000 | 83 | 191 | 0.0 | 6.1 | 0.00 | 0.01 | 0.01 | 52 | 1008.4 |
| 20260505191858 | 83 | 155 | 2.6 | 6.1 | 0.00 | 0.01 | 0.01 | 51 | 1008.3 |
| 20260505191758 | 83 | 154 | 0.0 | 6.1 | 0.00 | 0.01 | 0.01 | 51 | 1008.4 |
| 20260505191458 | 83 | 191 | 1.7 | 6.1 | 0.00 | 0.01 | 0.01 | 53 | 1008.3 |
| 20260505191359 | 83 | 191 | 0.9 | 6.1 | 0.00 | 0.01 | 0.01 | 53 | 1008.3 |
| 20260505191258 | 83 | 240 | 5.2 | 6.1 | 0.00 | 0.01 | 0.01 | 52 | 1008.3 |
| 20260505191158 | 83 | 139 | 2.6 | 6.1 | 0.00 | 0.01 | 0.01 | 51 | 1008.3 |
| 20260505190959 | 82 | 177 | 0.0 | 6.1 | 0.00 | 0.01 | 0.01 | 51 | 1008.2 |
| 20260505190858 | 82 | 177 | 1.7 | 6.1 | 0.00 | 0.01 | 0.01 | 50 | 1008.3 |
| 20260505190758 | 82 | 337 | 0.9 | 5.2 | 0.00 | 0.01 | 0.01 | 50 | 1008.3 |
| 20260505190658 | 82 | 337 | 0.0 | 5.2 | 0.00 | 0.01 | 0.01 | 50 | 1008.3 |
| 20260505190558 | 82 | 337 | 0.0 | 5.2 | 0.00 | 0.01 | 0.01 | 49 | 1008.3 |
| 20260505190500 | 82 | 331 | 0.9 | 5.2 | 0.00 | 0.01 | 0.01 | 49 | 1008.4 |
| 20260505190357 | 82 | 331 | 1.7 | 5.2 | 0.00 | 0.01 | 0.01 | 50 | 1008.4 |
| 20260505190258 | 82 | 331 | 0.0 | 5.2 | 0.00 | 0.01 | 0.01 | 49 | 1008.4 |
| 20260505190158 | 82 | 73 | 0.9 | 5.2 | 0.00 | 0.01 | 0.01 | 49 | 1008.5 |
| 20260505190058 | 82 | 77 | 1.7 | 5.2 | 0.00 | 0.01 | 0.01 | 49 | 1008.5 |
| 20260505190000 | 82 | 152 | 1.7 | 5.2 | 0.00 | 0.01 | 0.01 | 49 | 1008.5 |
| 20260505185857 | 82 | 141 | 0.0 | 4.3 | 0.00 | 0.01 | 0.01 | 49 | 1008.5 |
| 20260505185757 | 82 | 141 | 0.9 | 4.3 | 0.00 | 0.01 | 0.01 | 49 | 1008.4 |
| 20260505185558 | 82 | 140 | 0.0 | 4.3 | 0.00 | 0.01 | 0.01 | 49 | 1008.5 |
| 20260505185357 | 82 | 177 | 0.0 | 4.3 | 0.00 | 0.01 | 0.01 | 50 | 1008.5 |
| 20260505185057 | 82 | 235 | 1.7 | 4.3 | 0.00 | 0.01 | 0.01 | 49 | 1008.5 |
| 20260505184958 | 82 | 136 | 2.6 | 3.5 | 0.00 | 0.01 | 0.01 | 48 | 1008.4 |
| 20260505184856 | 82 | 136 | 1.7 | 3.5 | 0.00 | 0.01 | 0.01 | 48 | 1008.5 |
| 20260505184657 | 81 | 134 | 0.9 | 3.5 | 0.00 | 0.01 | 0.01 | 48 | 1008.5 |
| 20260505184558 | 81 | 183 | 2.6 | 3.5 | 0.00 | 0.01 | 0.01 | 48 | 1008.5 |
| 20260505184457 | 81 | 184 | 0.0 | 3.5 | 0.00 | 0.01 | 0.01 | 49 | 1008.5 |
| 20260505184357 | 81 | 184 | 0.0 | 3.5 | 0.00 | 0.01 | 0.01 | 49 | 1008.5 |
| 20260505184256 | 81 | 181 | 1.7 | 3.5 | 0.00 | 0.01 | 0.01 | 49 | 1008.5 |
| 20260505184157 | 81 | 180 | 1.7 | 3.5 | 0.00 | 0.01 | 0.01 | 49 | 1008.5 |
| 20260505184057 | 81 | 179 | 1.7 | 3.5 | 0.00 | 0.01 | 0.01 | 49 | 1008.5 |
| 20260505183957 | 81 | 203 | 1.7 | 3.5 | 0.00 | 0.01 | 0.01 | 49 | 1008.5 |
| 20260505183857 | 81 | 204 | 1.7 | 3.5 | 0.00 | 0.01 | 0.01 | 49 | 1008.5 |
| 20260505183757 | 81 | 204 | 0.0 | 2.6 | 0.00 | 0.01 | 0.01 | 49 | 1008.5 |
| 20260505183556 | 81 | 204 | 1.7 | 2.6 | 0.00 | 0.01 | 0.01 | 50 | 1008.5 |
| 20260505183457 | 81 | 200 | 0.9 | 2.6 | 0.00 | 0.01 | 0.01 | 50 | 1008.5 |
| 20260505183256 | 81 | 233 | 2.6 | 2.6 | 0.00 | 0.01 | 0.01 | 49 | 1008.6 |
| 20260505183157 | 81 | 181 | 1.7 | 2.6 | 0.00 | 0.01 | 0.01 | 47 | 1008.6 |
| 20260505182959 | 81 | 181 | 0.0 | 4.3 | 0.00 | 0.01 | 0.01 | 48 | 1008.7 |
| 20260505182857 | 81 | 203 | 0.0 | 6.1 | 0.00 | 0.01 | 0.01 | 48 | 1008.6 |
| 20260505182655 | 81 | 203 | 1.7 | 6.1 | 0.00 | 0.01 | 0.01 | 49 | 1008.7 |
| 20260505182558 | 81 | 203 | 1.7 | 6.1 | 0.00 | 0.01 | 0.01 | 50 | 1008.7 |
| 20260505182257 | 81 | 137 | 1.7 | 6.1 | 0.00 | 0.01 | 0.01 | 50 | 1008.6 |
| 20260505182157 | 81 | 136 | 2.6 | 6.1 | 0.00 | 0.01 | 0.01 | 50 | 1008.6 |
| 20260505182057 | 81 | 146 | 0.9 | 6.1 | 0.00 | 0.01 | 0.01 | 50 | 1008.6 |
| 20260505181959 | 81 | 167 | 3.5 | 6.1 | 0.00 | 0.01 | 0.01 | 50 | 1008.8 |
| 20260505181856 | 81 | 204 | 1.7 | 6.1 | 0.00 | 0.01 | 0.01 | 49 | 1008.8 |
| 20260505181758 | 81 | 216 | 1.7 | 6.1 | 0.00 | 0.01 | 0.01 | 49 | 1008.8 |
| 20260505181657 | 81 | 159 | 3.5 | 4.3 | 0.00 | 0.01 | 0.01 | 49 | 1008.8 |
| 20260505181556 | 81 | 148 | 4.3 | 4.3 | 0.00 | 0.01 | 0.01 | 48 | 1008.7 |
| 20260505181457 | 81 | 158 | 1.7 | 4.3 | 0.00 | 0.01 | 0.01 | 47 | 1008.7 |
| 20260505181358 | 81 | 158 | 1.7 | 4.3 | 0.00 | 0.01 | 0.01 | 47 | 1008.6 |
| 20260505181255 | 81 | 223 | 0.9 | 4.3 | 0.00 | 0.01 | 0.01 | 47 | 1008.7 |
| 20260505181157 | 81 | 233 | 0.9 | 4.3 | 0.00 | 0.01 | 0.01 | 47 | 1008.7 |
| 20260505181057 | 81 | 194 | 1.7 | 4.3 | 0.00 | 0.01 | 0.01 | 47 | 1008.7 |
| 20260505180959 | 81 | 194 | 0.0 | 4.3 | 0.00 | 0.01 | 0.01 | 47 | 1008.7 |
| 20260505180857 | 81 | 194 | 0.0 | 4.3 | 0.00 | 0.01 | 0.01 | 47 | 1008.7 |
| 20260505180458 | 81 | 183 | 0.9 | 4.3 | 0.00 | 0.01 | 0.01 | 46 | 1008.8 |
| 20260505180358 | 81 | 166 | 0.9 | 4.3 | 0.00 | 0.01 | 0.01 | 46 | 1008.8 |
| 20260505180257 | 81 | 206 | 1.7 | 4.3 | 0.00 | 0.01 | 0.01 | 46 | 1008.8 |
| 20260505180055 | 81 | 164 | 0.9 | 4.3 | 0.00 | 0.01 | 0.01 | 45 | 1008.9 |
| 20260505175857 | 81 | 176 | 0.9 | 5.2 | 0.00 | 0.01 | 0.01 | 44 | 1008.8 |
| 20260505175758 | 81 | 148 | 1.7 | 5.2 | 0.00 | 0.01 | 0.01 | 44 | 1008.8 |
| 20260505175658 | 81 | 148 | 4.3 | 5.2 | 0.00 | 0.01 | 0.01 | 43 | 1008.9 |
| 20260505175557 | 81 | 176 | 0.9 | 5.2 | 0.00 | 0.01 | 0.01 | 43 | 1008.8 |
| 20260505175357 | 81 | 176 | 0.9 | 5.2 | 0.00 | 0.01 | 0.01 | 41 | 1008.9 |
| 20260505175256 | 81 | 176 | 0.9 | 5.2 | 0.01 | 0.01 | 0.01 | 41 | 1008.9 |
| 20260505175157 | 81 | 176 | 0.0 | 5.2 | 0.01 | 0.01 | 0.01 | 41 | 1008.8 |
| 20260505175055 | 80 | 176 | 0.9 | 5.2 | 0.01 | 0.01 | 0.01 | 39 | 1008.9 |
| 20260505175000 | 80 | 201 | 1.7 | 4.3 | 0.01 | 0.01 | 0.01 | 39 | 1008.9 |
| 20260505174856 | 80 | 264 | 0.0 | 3.5 | 0.01 | 0.01 | 0.01 | 38 | 1009.0 |
| 20260505174756 | 80 | 264 | 0.0 | 3.5 | 0.01 | 0.01 | 0.01 | 38 | 1009.0 |
| 20260505174656 | 80 | 264 | 0.0 | 3.5 | 0.01 | 0.01 | 0.01 | 38 | 1009.0 |
| 20260505174559 | 80 | 264 | 0.0 | 3.5 | 0.01 | 0.01 | 0.01 | 39 | 1009.0 |
| 20260505174458 | 80 | 264 | 0.0 | 3.5 | 0.01 | 0.01 | 0.01 | 40 | 1009.0 |
| 20260505174358 | 80 | 264 | 0.0 | 3.5 | 0.01 | 0.01 | 0.01 | 40 | 1009.0 |
| 20260505174256 | 80 | 264 | 0.0 | 3.5 | 0.01 | 0.01 | 0.01 | 41 | 1009.0 |
| 20260505174158 | 80 | 264 | 0.9 | 3.5 | 0.01 | 0.01 | 0.01 | 40 | 1009.0 |
| 20260505174058 | 80 | 264 | 3.5 | 3.5 | 0.01 | 0.01 | 0.01 | 39 | 1009.0 |
| 20260505173958 | 80 | 21 | 1.7 | 3.5 | 0.01 | 0.01 | 0.01 | 38 | 1009.0 |
| 20260505173856 | 80 | 21 | 0.0 | 3.5 | 0.01 | 0.01 | 0.01 | 38 | 1009.0 |
| 20260505173758 | 80 | 184 | 0.0 | 2.6 | 0.01 | 0.01 | 0.01 | 37 | 1009.0 |
| 20260505173556 | 80 | 184 | 1.7 | 2.6 | 0.01 | 0.01 | 0.01 | 37 | 1009.0 |
| 20260505173456 | 80 | 184 | 0.9 | 2.6 | 0.01 | 0.01 | 0.01 | 37 | 1009.0 |
| 20260505173358 | 80 | 184 | 1.7 | 2.6 | 0.01 | 0.01 | 0.01 | 37 | 1008.9 |
| 20260505173257 | 80 | 184 | 0.0 | 2.6 | 0.01 | 0.01 | 0.01 | 37 | 1009.0 |
| 20260505173156 | 80 | 184 | 0.0 | 2.6 | 0.01 | 0.01 | 0.01 | 38 | 1009.0 |
| 20260505173058 | 80 | 184 | 0.9 | 2.6 | 0.01 | 0.01 | 0.01 | 38 | 1009.0 |
| 20260505173000 | 80 | 184 | 0.9 | 2.6 | 0.01 | 0.01 | 0.01 | 39 | 1009.0 |
| 20260505172858 | 80 | 184 | 0.9 | 2.6 | 0.01 | 0.01 | 0.01 | 39 | 1009.0 |
| 20260505172758 | 80 | 185 | 0.0 | 3.5 | 0.01 | 0.01 | 0.01 | 39 | 1009.1 |
| 20260505172558 | 80 | 185 | 0.0 | 3.5 | 0.01 | 0.01 | 0.01 | 39 | 1009.1 |
| 20260505172458 | 80 | 185 | 0.0 | 3.5 | 0.01 | 0.01 | 0.01 | 39 | 1009.1 |
| 20260505172357 | 80 | 187 | 0.9 | 3.5 | 0.01 | 0.01 | 0.01 | 39 | 1009.0 |
| 20260505172256 | 80 | 187 | 0.9 | 3.5 | 0.01 | 0.01 | 0.01 | 40 | 1009.0 |
| 20260505172158 | 80 | 188 | 0.0 | 3.5 | 0.01 | 0.01 | 0.01 | 40 | 1009.1 |
| 20260505172058 | 80 | 187 | 0.9 | 3.5 | 0.01 | 0.01 | 0.01 | 40 | 1009.1 |
| 20260505171958 | 80 | 186 | 1.7 | 3.5 | 0.01 | 0.01 | 0.01 | 40 | 1009.1 |
| 20260505171856 | 80 | 94 | 3.5 | 3.5 | 0.01 | 0.01 | 0.01 | 39 | 1009.2 |
| 20260505171658 | 80 | 92 | 0.0 | 3.5 | 0.01 | 0.01 | 0.01 | 38 | 1009.1 |
| 20260505171357 | 80 | 92 | 0.0 | 3.5 | 0.01 | 0.01 | 0.01 | 39 | 1009.1 |
| 20260505171159 | 80 | 92 | 0.9 | 3.5 | 0.01 | 0.01 | 0.01 | 39 | 1009.2 |
| 20260505171056 | 80 | 92 | 0.0 | 3.5 | 0.01 | 0.01 | 0.01 | 39 | 1009.2 |
| 20260505171000 | 80 | 92 | 0.0 | 3.5 | 0.01 | 0.01 | 0.01 | 38 | 1009.2 |
| 20260505170858 | 80 | 245 | 1.7 | 3.5 | 0.01 | 0.01 | 0.01 | 38 | 1009.2 |
| 20260505170759 | 80 | 257 | 0.0 | 3.5 | 0.01 | 0.01 | 0.01 | 39 | 1009.2 |
| 20260505170656 | 80 | 257 | 0.0 | 3.5 | 0.01 | 0.01 | 0.01 | 39 | 1009.2 |
| 20260505170557 | 80 | 257 | 0.9 | 3.5 | 0.01 | 0.01 | 0.01 | 39 | 1009.2 |
| 20260505170458 | 80 | 257 | 0.9 | 3.5 | 0.01 | 0.01 | 0.01 | 39 | 1009.2 |
| 20260505170358 | 80 | 257 | 0.0 | 5.2 | 0.01 | 0.01 | 0.01 | 39 | 1009.3 |
| 20260505170058 | 80 | 256 | 0.9 | 5.2 | 0.01 | 0.01 | 0.01 | 40 | 1009.3 |
| 20260505165956 | 80 | 256 | 2.6 | 5.2 | 0.01 | 0.01 | 0.01 | 41 | 1009.2 |
| 20260505165855 | 80 | 268 | 1.7 | 5.2 | 0.01 | 0.01 | 0.01 | 40 | 1009.3 |
| 20260505165758 | 80 | 268 | 0.0 | 5.2 | 0.01 | 0.01 | 0.01 | 40 | 1009.3 |
| 20260505165555 | 80 | 270 | 1.7 | 5.2 | 0.01 | 0.01 | 0.01 | 39 | 1009.3 |
| 20260505165357 | 80 | 174 | 0.0 | 3.5 | 0.01 | 0.01 | 0.01 | 39 | 1009.3 |
| 20260505165257 | 80 | 174 | 2.6 | 3.5 | 0.00 | 0.00 | 0.00 | 39 | 1009.3 |
| 20260505165156 | 80 | 174 | 0.9 | 3.5 | 0.00 | 0.00 | 0.00 | 38 | 1009.3 |
| 20260505165058 | 80 | 174 | 0.9 | 3.5 | 0.00 | 0.00 | 0.00 | 38 | 1009.3 |
| 20260505164857 | 80 | 181 | 0.0 | 3.5 | 0.00 | 0.00 | 0.00 | 38 | 1009.3 |
| 20260505164758 | 80 | 175 | 1.7 | 2.6 | 0.00 | 0.00 | 0.00 | 36 | 1009.3 |
| 20260505164655 | 80 | 175 | 0.0 | 2.6 | 0.00 | 0.00 | 0.00 | 36 | 1009.3 |
| 20260505164557 | 79 | 175 | 0.0 | 2.6 | 0.00 | 0.00 | 0.00 | 36 | 1009.3 |
| 20260505164357 | 79 | 175 | 0.0 | 2.6 | 0.00 | 0.00 | 0.00 | 36 | 1009.2 |
| 20260505164255 | 79 | 175 | 0.0 | 2.6 | 0.00 | 0.00 | 0.00 | 36 | 1009.2 |
| 20260505164157 | 79 | 175 | 0.0 | 2.6 | 0.00 | 0.00 | 0.00 | 36 | 1009.2 |
| 20260505163957 | 79 | 175 | 0.9 | 2.6 | 0.00 | 0.00 | 0.00 | 36 | 1009.2 |
| 20260505163855 | 79 | 181 | 1.7 | 3.5 | 0.00 | 0.00 | 0.00 | 35 | 1009.2 |
| 20260505163756 | 79 | 181 | 0.0 | 3.5 | 0.00 | 0.00 | 0.00 | 36 | 1009.2 |
| 20260505163658 | 79 | 181 | 0.9 | 3.5 | 0.00 | 0.00 | 0.00 | 35 | 1009.2 |
| 20260505163558 | 79 | 181 | 0.0 | 3.5 | 0.00 | 0.00 | 0.00 | 35 | 1009.2 |
| 20260505163455 | 79 | 181 | 0.9 | 3.5 | 0.00 | 0.00 | 0.00 | 36 | 1009.2 |
| 20260505163355 | 79 | 181 | 1.7 | 3.5 | 0.00 | 0.00 | 0.00 | 35 | 1009.2 |
| 20260505163257 | 79 | 181 | 0.0 | 3.5 | 0.00 | 0.00 | 0.00 | 35 | 1009.2 |
| 20260505163158 | 79 | 181 | 0.9 | 3.5 | 0.00 | 0.00 | 0.00 | 35 | 1009.2 |
| 20260505162957 | 79 | 176 | 0.0 | 4.3 | 0.00 | 0.00 | 0.00 | 34 | 1009.2 |
| 20260505162856 | 79 | 176 | 0.0 | 4.3 | 0.00 | 0.00 | 0.00 | 34 | 1009.2 |
| 20260505162758 | 79 | 176 | 0.0 | 4.3 | 0.00 | 0.00 | 0.00 | 35 | 1009.2 |
| 20260505162655 | 79 | 176 | 0.0 | 4.3 | 0.00 | 0.00 | 0.00 | 35 | 1009.2 |
| 20260505162556 | 79 | 176 | 0.0 | 4.3 | 0.00 | 0.00 | 0.00 | 35 | 1009.2 |
| 20260505162457 | 79 | 176 | 0.9 | 4.3 | 0.00 | 0.00 | 0.00 | 36 | 1009.1 |
| 20260505162357 | 79 | 176 | 1.7 | 4.3 | 0.00 | 0.00 | 0.00 | 36 | 1009.2 |
| 20260505162255 | 79 | 176 | 1.7 | 4.3 | 0.00 | 0.00 | 0.00 | 36 | 1009.1 |
| 20260505162156 | 79 | 172 | 2.6 | 4.3 | 0.00 | 0.00 | 0.00 | 34 | 1009.1 |
| 20260505161959 | 79 | 172 | 0.0 | 4.3 | 0.00 | 0.00 | 0.00 | 34 | 1009.1 |
| 20260505161857 | 79 | 171 | 0.9 | 4.3 | 0.00 | 0.00 | 0.00 | 34 | 1009.1 |
| 20260505161657 | 79 | 171 | 1.7 | 4.3 | 0.00 | 0.00 | 0.00 | 35 | 1009.1 |
| 20260505161557 | 79 | 245 | 1.7 | 5.2 | 0.00 | 0.00 | 0.00 | 34 | 1009.1 |
| 20260505161455 | 79 | 126 | 0.0 | 5.2 | 0.00 | 0.00 | 0.00 | 35 | 1009.2 |
| 20260505161356 | 79 | 126 | 0.9 | 5.2 | 0.00 | 0.00 | 0.00 | 35 | 1009.1 |
| 20260505161256 | 79 | 126 | 0.0 | 5.2 | 0.00 | 0.00 | 0.00 | 35 | 1009.1 |
| 20260505161157 | 79 | 126 | 0.9 | 5.2 | 0.00 | 0.00 | 0.00 | 35 | 1009.2 |
| 20260505161058 | 79 | 126 | 0.9 | 5.2 | 0.00 | 0.00 | 0.00 | 35 | 1009.1 |
| 20260505160957 | 79 | 125 | 1.7 | 5.2 | 0.00 | 0.00 | 0.00 | 35 | 1009.1 |
| 20260505160857 | 79 | 141 | 2.6 | 5.2 | 0.00 | 0.00 | 0.00 | 35 | 1009.2 |
| 20260505160755 | 79 | 183 | 0.9 | 3.5 | 0.00 | 0.00 | 0.00 | 35 | 1009.2 |
| 20260505160657 | 79 | 183 | 0.9 | 3.5 | 0.00 | 0.00 | 0.00 | 35 | 1009.1 |
| 20260505160555 | 79 | 182 | 0.9 | 3.5 | 0.00 | 0.00 | 0.00 | 34 | 1009.1 |
| 20260505160457 | 79 | 124 | 0.0 | 3.5 | 0.00 | 0.00 | 0.00 | 34 | 1009.2 |
| 20260505153356 | 78 | 206 | 0.9 | 3.5 | 0.00 | 0.00 | 0.00 | 33 | 1009.0 |
| 20260505153156 | 78 | 196 | 0.9 | 3.5 | 0.00 | 0.00 | 0.00 | 33 | 1008.9 |
| 20260505153058 | 78 | 196 | 0.0 | 3.5 | 0.00 | 0.00 | 0.00 | 33 | 1008.9 |
| 20260505153000 | 78 | 196 | 0.0 | 3.5 | 0.00 | 0.00 | 0.00 | 33 | 1008.9 |
| 20260505152856 | 78 | 196 | 1.7 | 5.2 | 0.00 | 0.00 | 0.00 | 32 | 1009.0 |
| 20260505152758 | 78 | 196 | 2.6 | 6.1 | 0.00 | 0.00 | 0.00 | 31 | 1008.9 |
| 20260505152657 | 78 | 187 | 0.9 | 6.1 | 0.00 | 0.00 | 0.00 | 32 | 1008.9 |
| 20260505152558 | 78 | 187 | 0.0 | 6.1 | 0.00 | 0.00 | 0.00 | 32 | 1008.9 |
| 20260505152357 | 78 | 229 | 0.9 | 6.1 | 0.00 | 0.00 | 0.00 | 32 | 1008.9 |
| 20260505152258 | 78 | 229 | 1.7 | 6.1 | 0.00 | 0.00 | 0.00 | 33 | 1008.9 |
| 20260505152159 | 78 | 232 | 0.0 | 6.1 | 0.00 | 0.00 | 0.00 | 33 | 1008.9 |
| 20260505152055 | 78 | 232 | 0.9 | 6.1 | 0.00 | 0.00 | 0.00 | 33 | 1008.9 |
| 20260505151958 | 78 | 177 | 1.7 | 6.1 | 0.00 | 0.00 | 0.00 | 32 | 1008.9 |
| 20260505151858 | 78 | 175 | 0.9 | 6.1 | 0.00 | 0.00 | 0.00 | 32 | 1008.9 |
| 20260505151759 | 78 | 130 | 3.5 | 5.2 | 0.00 | 0.00 | 0.00 | 31 | 1008.9 |
| 20260505151557 | 78 | 175 | 0.9 | 5.2 | 0.00 | 0.00 | 0.00 | 31 | 1008.9 |
| 20260505151458 | 78 | 174 | 1.7 | 5.2 | 0.00 | 0.00 | 0.00 | 31 | 1008.9 |
| 20260505151358 | 78 | 302 | 0.0 | 5.2 | 0.00 | 0.00 | 0.00 | 31 | 1008.9 |
| 20260505151159 | 78 | 250 | 0.9 | 5.2 | 0.00 | 0.00 | 0.00 | 31 | 1008.9 |
| 20260505151056 | 78 | 210 | 2.6 | 3.5 | 0.00 | 0.00 | 0.00 | 29 | 1008.9 |
| 20260505151000 | 78 | 288 | 1.7 | 3.5 | 0.00 | 0.00 | 0.00 | 28 | 1008.9 |
| 20260505150856 | 78 | 286 | 0.9 | 3.5 | 0.00 | 0.00 | 0.00 | 28 | 1008.9 |
| 20260505150757 | 78 | 287 | 1.7 | 3.5 | 0.00 | 0.00 | 0.00 | 28 | 1008.9 |
| 20260505150558 | 77 | 286 | 0.0 | 2.6 | 0.00 | 0.00 | 0.00 | 27 | 1008.9 |
| 20260505150457 | 77 | 287 | 0.0 | 6.1 | 0.00 | 0.00 | 0.00 | 27 | 1008.9 |
| 20260505150356 | 77 | 287 | 0.0 | 6.1 | 0.00 | 0.00 | 0.00 | 27 | 1008.9 |
| 20260505150258 | 77 | 287 | 1.7 | 6.1 | 0.00 | 0.00 | 0.00 | 27 | 1008.8 |
| 20260505150158 | 77 | 288 | 2.6 | 6.1 | 0.00 | 0.00 | 0.00 | 26 | 1008.8 |
| 20260505140457 | 75 | 149 | 0.0 | 4.3 | 0.00 | 0.00 | 0.00 | 5 | 1009.0 |
| 20260505140257 | 75 | 149 | 0.0 | 4.3 | 0.00 | 0.00 | 0.00 | 5 | 1009.0 |
| 20260505140158 | 75 | 149 | 0.9 | 4.3 | 0.00 | 0.00 | 0.00 | 5 | 1009.0 |
| 20260505130258 | 73 | 182 | 0.0 | 2.6 | 0.00 | 0.00 | 0.00 | 100 | 1008.9 |
| 20260505130156 | 72 | 182 | 0.9 | 2.6 | 0.00 | 0.00 | 0.00 | 100 | 1008.9 |
| 20260505124957 | 72 | 149 | 0.9 | 3.5 | 0.00 | 0.00 | 0.00 | 100 | 1008.7 |
| 20260505124856 | 72 | 150 | 0.9 | 3.5 | 0.00 | 0.00 | 0.00 | 100 | 1008.6 |
| 20260505124758 | 72 | 150 | 0.9 | 3.5 | 0.00 | 0.00 | 0.00 | 100 | 1008.6 |
| 20260505124656 | 72 | 150 | 0.0 | 3.5 | 0.00 | 0.00 | 0.00 | 100 | 1008.6 |
| 20260505124458 | 72 | 150 | 1.7 | 3.5 | 0.00 | 0.00 | 0.00 | 100 | 1008.6 |
| 20260505124356 | 72 | 173 | 0.0 | 3.5 | 0.00 | 0.00 | 0.00 | 100 | 1008.5 |
| 20260505124257 | 72 | 175 | 0.0 | 2.6 | 0.00 | 0.00 | 0.00 | 100 | 1008.6 |
| 20260505124158 | 72 | 175 | 0.0 | 2.6 | 0.00 | 0.00 | 0.00 | 100 | 1008.5 |
| 20260505124058 | 71 | 175 | 0.0 | 2.6 | 0.00 | 0.00 | 0.00 | 100 | 1008.6 |
| 20260505123857 | 71 | 175 | 0.9 | 2.6 | 0.00 | 0.00 | 0.00 | 100 | 1008.6 |
| 20260505123757 | 71 | 175 | 0.0 | 2.6 | 0.00 | 0.00 | 0.00 | 100 | 1008.6 |
| 20260505123656 | 71 | 174 | 0.0 | 2.6 | 0.00 | 0.00 | 0.00 | 100 | 1008.7 |
| 20260505123557 | 71 | 174 | 0.0 | 2.6 | 0.00 | 0.00 | 0.00 | 100 | 1008.7 |
| 20260505123456 | 71 | 174 | 0.0 | 2.6 | 0.00 | 0.00 | 0.00 | 100 | 1008.7 |
| 20260505123256 | 71 | 174 | 0.9 | 2.6 | 0.00 | 0.00 | 0.00 | 100 | 1008.6 |
| 20260505123156 | 71 | 174 | 0.0 | 2.6 | 0.00 | 0.00 | 0.00 | 100 | 1008.6 |
| 20260505123055 | 71 | 174 | 0.0 | 2.6 | 0.00 | 0.00 | 0.00 | 100 | 1008.5 |
| 20260505122857 | 71 | 174 | 0.0 | 1.7 | 0.00 | 0.00 | 0.00 | 100 | 1008.4 |
| 20260505122756 | 71 | 174 | 0.0 | 1.7 | 0.00 | 0.00 | 0.00 | 100 | 1008.4 |
| 20260505122656 | 71 | 174 | 0.0 | 1.7 | 0.00 | 0.00 | 0.00 | 100 | 1008.4 |
| 20260505122558 | 71 | 174 | 0.0 | 3.5 | 0.00 | 0.00 | 0.00 | 100 | 1008.3 |
| 20260505122357 | 71 | 174 | 0.0 | 3.5 | 0.00 | 0.00 | 0.00 | 100 | 1008.3 |
| 20260505122258 | 71 | 174 | 0.0 | 3.5 | 0.00 | 0.00 | 0.00 | 100 | 1008.3 |
| 20260505122158 | 71 | 174 | 0.0 | 3.5 | 0.00 | 0.00 | 0.00 | 100 | 1008.3 |
| 20260505122058 | 71 | 174 | 0.0 | 3.5 | 0.00 | 0.00 | 0.00 | 100 | 1008.3 |
| 20260505122000 | 71 | 174 | 0.9 | 3.5 | 0.00 | 0.00 | 0.00 | 100 | 1008.2 |
| 20260505121855 | 71 | 174 | 0.0 | 3.5 | 0.00 | 0.00 | 0.00 | 100 | 1008.2 |
| 20260505121758 | 71 | 174 | 0.0 | 3.5 | 0.00 | 0.00 | 0.00 | 100 | 1008.2 |
| 20260505121657 | 71 | 174 | 2.6 | 3.5 | 0.00 | 0.00 | 0.00 | 100 | 1008.2 |
| 20260505121556 | 71 | 174 | 0.9 | 3.5 | 0.00 | 0.00 | 0.00 | 100 | 1008.1 |
| 20260505121356 | 71 | 174 | 2.6 | 2.6 | 0.00 | 0.00 | 0.00 | 100 | 1008.1 |
| 20260505121258 | 71 | 175 | 0.0 | 1.7 | 0.00 | 0.00 | 0.00 | 100 | 1008.1 |
| 20260505121058 | 71 | 175 | 0.0 | 1.7 | 0.00 | 0.00 | 0.00 | 100 | 1008.0 |
| 20260505120959 | 71 | 175 | 0.9 | 2.6 | 0.00 | 0.00 | 0.00 | 100 | 1008.0 |
| 20260505120858 | 71 | 175 | 0.0 | 2.6 | 0.00 | 0.00 | 0.00 | 100 | 1008.0 |
| 20260505120756 | 71 | 175 | 0.0 | 2.6 | 0.00 | 0.00 | 0.00 | 100 | 1008.0 |
| 20260505120657 | 71 | 175 | 1.7 | 2.6 | 0.00 | 0.00 | 0.00 | 100 | 1008.0 |
| 20260505120458 | 71 | 175 | 0.0 | 2.6 | 0.00 | 0.00 | 0.00 | 100 | 1007.9 |
| 20260505120356 | 71 | 175 | 0.0 | 2.6 | 0.00 | 0.00 | 0.00 | 100 | 1007.9 |
| 20260505120255 | 71 | 175 | 0.0 | 2.6 | 0.00 | 0.00 | 0.00 | 100 | 1007.9 |
| 20260505120156 | 71 | 175 | 1.7 | 2.6 | 0.00 | 0.00 | 0.00 | 100 | 1008.0 |
| 20260505120058 | 71 | 177 | 0.9 | 1.7 | 0.00 | 0.00 | 0.00 | 100 | 1008.0 |
| 20260505115957 | 71 | 177 | 0.0 | 1.7 | 0.00 | 0.00 | 0.00 | 100 | 1008.1 |
| 20260505115856 | 71 | 177 | 0.9 | 1.7 | 0.00 | 0.00 | 0.00 | 100 | 1008.2 |
| 20260505115758 | 71 | 177 | 0.0 | 1.7 | 0.00 | 0.00 | 0.00 | 100 | 1008.2 |
| 20260505115556 | 71 | 177 | 0.0 | 1.7 | 0.00 | 0.00 | 0.00 | 100 | 1008.4 |
| 20260505115456 | 71 | 177 | 0.0 | 1.7 | 0.00 | 0.00 | 0.00 | 100 | 1008.4 |
| 20260505115358 | 71 | 177 | 0.0 | 1.7 | 0.00 | 0.00 | 0.00 | 100 | 1008.5 |
| 20260505115258 | 71 | 177 | 0.9 | 0.9 | 0.00 | 0.00 | 0.00 | 100 | 1008.5 |
| 20260505115056 | 71 | 177 | 0.0 | 0.9 | 0.00 | 0.00 | 0.00 | 100 | 1008.5 |
| 20260505114856 | 71 | 177 | 0.0 | 0.9 | 0.00 | 0.00 | 0.00 | 100 | 1008.5 |
| 20260505114758 | 71 | 177 | 0.0 | 0.9 | 0.00 | 0.00 | 0.00 | 100 | 1008.6 |
| 20260505114656 | 71 | 177 | 0.9 | 0.9 | 0.00 | 0.00 | 0.00 | 100 | 1008.6 |
| 20260505114557 | 71 | 177 | 0.0 | 0.9 | 0.00 | 0.00 | 0.00 | 100 | 1008.6 |
| 20260505114456 | 71 | 177 | 0.0 | 0.9 | 0.00 | 0.00 | 0.00 | 100 | 1008.6 |
| 20260505114358 | 71 | 177 | 0.0 | 0.0 | 0.00 | 0.00 | 0.00 | 100 | 1008.5 |
| 20260505114256 | 71 | 177 | 0.0 | 0.9 | 0.00 | 0.00 | 0.00 | 100 | 1008.6 |
| 20260505114057 | 71 | 177 | 0.0 | 0.9 | 0.00 | 0.00 | 0.00 | 100 | 1008.4 |
| 20260505113959 | 71 | 177 | 0.0 | 0.9 | 0.00 | 0.00 | 0.00 | 100 | 1008.4 |
| 20260505113858 | 71 | 177 | 0.0 | 0.9 | 0.00 | 0.00 | 0.00 | 100 | 1008.3 |
| 20260505113756 | 71 | 177 | 0.0 | 0.9 | 0.00 | 0.00 | 0.00 | 100 | 1008.3 |
| 20260505113658 | 71 | 177 | 0.0 | 0.9 | 0.00 | 0.00 | 0.00 | 100 | 1008.3 |
| 20260505113458 | 71 | 177 | 0.0 | 0.9 | 0.00 | 0.00 | 0.00 | 100 | 1008.3 |
| 20260505113359 | 71 | 177 | 0.0 | 0.9 | 0.00 | 0.00 | 0.00 | 100 | 1008.2 |
| 20260505113058 | 71 | 177 | 0.0 | 0.9 | 0.00 | 0.00 | 0.00 | 100 | 1008.2 |
| 20260505112757 | 71 | 177 | 0.0 | 0.9 | 0.00 | 0.00 | 0.00 | 100 | 1008.2 |
| 20260505112656 | 71 | 177 | 0.0 | 0.9 | 0.00 | 0.00 | 0.00 | 100 | 1008.2 |
| 20260505112556 | 71 | 177 | 0.9 | 0.9 | 0.00 | 0.00 | 0.00 | 100 | 1008.2 |
| 20260505112358 | 71 | 177 | 0.0 | 1.7 | 0.00 | 0.00 | 0.00 | 100 | 1008.1 |
| 20260505112256 | 71 | 177 | 0.0 | 1.7 | 0.00 | 0.00 | 0.00 | 100 | 1008.1 |
| 20260505112057 | 71 | 177 | 0.0 | 1.7 | 0.00 | 0.00 | 0.00 | 100 | 1008.1 |
| 20260505111959 | 71 | 177 | 0.0 | 1.7 | 0.00 | 0.00 | 0.00 | 100 | 1008.1 |
| 20260505111858 | 71 | 177 | 0.0 | 1.7 | 0.00 | 0.00 | 0.00 | 100 | 1008.1 |
| 20260505111758 | 71 | 177 | 0.0 | 1.7 | 0.00 | 0.00 | 0.00 | 100 | 1008.0 |
| 20260505111658 | 71 | 177 | 0.0 | 1.7 | 0.00 | 0.00 | 0.00 | 100 | 1008.0 |
| 20260505111558 | 71 | 177 | 0.9 | 1.7 | 0.00 | 0.00 | 0.00 | 100 | 1008.0 |
| 20260505111458 | 71 | 177 | 0.9 | 1.7 | 0.00 | 0.00 | 0.00 | 100 | 1008.0 |
| 20260505111358 | 71 | 177 | 0.0 | 1.7 | 0.00 | 0.00 | 0.00 | 100 | 1008.0 |
| 20260505111258 | 71 | 177 | 0.0 | 1.7 | 0.00 | 0.00 | 0.00 | 100 | 1008.0 |
| 20260505111158 | 71 | 177 | 0.0 | 1.7 | 0.00 | 0.00 | 0.00 | 100 | 1008.1 |
| 20260505111058 | 71 | 177 | 0.0 | 1.7 | 0.00 | 0.00 | 0.00 | 100 | 1008.2 |
| 20260505110957 | 71 | 177 | 0.0 | 1.7 | 0.00 | 0.00 | 0.00 | 100 | 1008.2 |
| 20260505110856 | 71 | 177 | 0.0 | 2.6 | 0.00 | 0.00 | 0.00 | 100 | 1008.2 |
| 20260505110758 | 71 | 177 | 0.0 | 2.6 | 0.00 | 0.00 | 0.00 | 100 | 1008.2 |
| 20260505110657 | 71 | 177 | 0.0 | 2.6 | 0.00 | 0.00 | 0.00 | 100 | 1008.2 |
| 20260505110556 | 71 | 177 | 0.0 | 2.6 | 0.00 | 0.00 | 0.00 | 100 | 1008.2 |
| 20260505110456 | 71 | 177 | 0.0 | 2.6 | 0.00 | 0.00 | 0.00 | 100 | 1008.2 |
| 20260505110356 | 71 | 177 | 0.0 | 2.6 | 0.00 | 0.00 | 0.00 | 100 | 1008.3 |
| 20260505110255 | 71 | 177 | 0.0 | 2.6 | 0.00 | 0.00 | 0.00 | 1 | 1008.4 |
| 20260505110156 | 71 | 177 | 0.9 | 2.6 | 0.00 | 0.00 | 0.00 | 1 | 1008.3 |
| 20260505102158 | 71 | 177 | 0.0 | 1.7 | 0.00 | 0.00 | 0.00 | 1 | 1008.1 |
| 20260505102056 | 71 | 177 | 0.0 | 1.7 | 0.00 | 0.00 | 0.00 | 1 | 1008.1 |
| 20260505101858 | 71 | 177 | 0.0 | 1.7 | 0.00 | 0.00 | 0.00 | 1 | 1008.1 |
| 20260505101757 | 71 | 177 | 0.0 | 1.7 | 0.00 | 0.00 | 0.00 | 1 | 1008.1 |
| 20260505101657 | 71 | 177 | 0.9 | 1.7 | 0.00 | 0.00 | 0.00 | 1 | 1008.1 |
| 20260505101556 | 71 | 177 | 0.0 | 0.9 | 0.00 | 0.00 | 0.00 | 1 | 1008.2 |
| 20260505101358 | 71 | 177 | 0.0 | 0.9 | 0.00 | 0.00 | 0.00 | 2 | 1008.3 |
| 20260505101255 | 71 | 177 | 0.0 | 0.9 | 0.00 | 0.00 | 0.00 | 2 | 1008.4 |
| 20260505101156 | 71 | 177 | 0.0 | 0.9 | 0.00 | 0.00 | 0.00 | 2 | 1008.4 |
| 20260505100857 | 71 | 177 | 0.0 | 1.7 | 0.00 | 0.00 | 0.00 | 1 | 1008.4 |
| 20260505100758 | 71 | 177 | 0.0 | 1.7 | 0.00 | 0.00 | 0.00 | 1 | 1008.4 |
| 20260505100557 | 71 | 177 | 0.0 | 1.7 | 0.00 | 0.00 | 0.00 | 1 | 1008.4 |
| 20260505100458 | 71 | 177 | 0.0 | 1.7 | 0.00 | 0.00 | 0.00 | 1 | 1008.4 |
| 20260505100358 | 71 | 177 | 0.0 | 1.7 | 0.00 | 0.00 | 0.00 | 1 | 1008.4 |
| 20260505100158 | 71 | 177 | 1.7 | 1.7 | 0.00 | 0.00 | 0.00 | 1 | 1008.4 |
| 20260505100056 | 71 | 177 | 0.0 | 0.9 | 0.00 | 0.00 | 0.00 | 2 | 1008.3 |
| 20260505095958 | 71 | 177 | 0.0 | 0.9 | 0.00 | 0.00 | 0.00 | 2 | 1008.4 |
| 20260505095855 | 71 | 177 | 0.0 | 0.9 | 0.00 | 0.00 | 0.00 | 2 | 1008.4 |
| 20260505095657 | 71 | 177 | 0.0 | 0.9 | 0.00 | 0.00 | 0.00 | 2 | 1008.3 |
| 20260505095558 | 71 | 177 | 0.0 | 1.7 | 0.00 | 0.00 | 0.00 | 2 | 1008.3 |
| 20260505095456 | 71 | 177 | 0.0 | 1.7 | 0.00 | 0.00 | 0.00 | 2 | 1008.2 |
| 20260505095357 | 71 | 177 | 0.0 | 1.7 | 0.00 | 0.00 | 0.00 | 2 | 1008.2 |
| 20260505095255 | 71 | 177 | 0.0 | 1.7 | 0.00 | 0.00 | 0.00 | 2 | 1008.2 |
| 20260505095057 | 71 | 177 | 0.0 | 1.7 | 0.00 | 0.00 | 0.00 | 2 | 1008.1 |
| 20260505094959 | 70 | 177 | 0.0 | 1.7 | 0.00 | 0.00 | 0.00 | 2 | 1008.0 |
| 20260505094855 | 70 | 177 | 0.0 | 1.7 | 0.00 | 0.00 | 0.00 | 2 | 1008.1 |
| 20260505094756 | 70 | 177 | 0.0 | 1.7 | 0.00 | 0.00 | 0.00 | 3 | 1008.0 |
| 20260505094658 | 70 | 177 | 0.0 | 1.7 | 0.00 | 0.00 | 0.00 | 2 | 1008.1 |
| 20260505094558 | 70 | 177 | 0.0 | 1.7 | 0.00 | 0.00 | 0.00 | 2 | 1008.1 |
| 20260505094457 | 70 | 177 | 0.9 | 1.7 | 0.00 | 0.00 | 0.00 | 3 | 1008.1 |
| 20260505094358 | 70 | 177 | 0.0 | 1.7 | 0.00 | 0.00 | 0.00 | 3 | 1008.2 |
| 20260505094258 | 70 | 177 | 0.9 | 0.9 | 0.00 | 0.00 | 0.00 | 3 | 1008.2 |
| 20260505094158 | 70 | 177 | 0.0 | 1.7 | 0.00 | 0.00 | 0.00 | 3 | 1008.3 |
| 20260505094057 | 70 | 177 | 0.0 | 1.7 | 0.00 | 0.00 | 0.00 | 3 | 1008.2 |
| 20260505093959 | 70 | 177 | 0.0 | 1.7 | 0.00 | 0.00 | 0.00 | 4 | 1008.2 |
| 20260505093858 | 70 | 177 | 0.0 | 1.7 | 0.00 | 0.00 | 0.00 | 4 | 1008.2 |
| 20260505093758 | 70 | 177 | 0.0 | 1.7 | 0.00 | 0.00 | 0.00 | 3 | 1008.2 |
| 20260505093657 | 70 | 177 | 0.0 | 1.7 | 0.00 | 0.00 | 0.00 | 4 | 1008.2 |
| 20260505093556 | 70 | 177 | 0.0 | 1.7 | 0.00 | 0.00 | 0.00 | 4 | 1008.1 |
| 20260505093457 | 70 | 177 | 0.0 | 1.7 | 0.00 | 0.00 | 0.00 | 4 | 1008.3 |
| 20260505093358 | 70 | 177 | 0.0 | 1.7 | 0.00 | 0.00 | 0.00 | 4 | 1008.2 |
| 20260505093258 | 70 | 177 | 0.9 | 1.7 | 0.00 | 0.00 | 0.00 | 4 | 1008.3 |
| 20260505093156 | 70 | 177 | 0.0 | 0.9 | 0.00 | 0.00 | 0.00 | 4 | 1008.2 |
| 20260505092958 | 70 | 177 | 0.0 | 0.9 | 0.00 | 0.00 | 0.00 | 4 | 1008.3 |
| 20260505092855 | 70 | 177 | 0.0 | 0.9 | 0.00 | 0.00 | 0.00 | 4 | 1008.3 |
| 20260505092758 | 70 | 177 | 0.0 | 0.9 | 0.00 | 0.00 | 0.00 | 4 | 1008.4 |
| 20260505092656 | 70 | 177 | 0.0 | 0.9 | 0.00 | 0.00 | 0.00 | 5 | 1008.4 |
| 20260505092558 | 70 | 177 | 0.0 | 0.9 | 0.00 | 0.00 | 0.00 | 6 | 1008.4 |
| 20260505092456 | 70 | 177 | 0.0 | 0.9 | 0.00 | 0.00 | 0.00 | 6 | 1008.4 |
| 20260505092357 | 70 | 177 | 0.0 | 0.9 | 0.00 | 0.00 | 0.00 | 6 | 1008.5 |
| 20260505092257 | 70 | 177 | 0.0 | 0.9 | 0.00 | 0.00 | 0.00 | 6 | 1008.5 |
| 20260505092158 | 70 | 177 | 0.0 | 0.9 | 0.00 | 0.00 | 0.00 | 6 | 1008.5 |
| 20260505092058 | 70 | 177 | 0.0 | 0.9 | 0.00 | 0.00 | 0.00 | 7 | 1008.5 |
| 20260505091958 | 70 | 177 | 0.0 | 0.9 | 0.00 | 0.00 | 0.00 | 7 | 1008.6 |
| 20260505091858 | 70 | 177 | 0.0 | 0.9 | 0.00 | 0.00 | 0.00 | 7 | 1008.6 |
| 20260505091657 | 70 | 177 | 0.0 | 0.9 | 0.00 | 0.00 | 0.00 | 8 | 1008.6 |
| 20260505091356 | 70 | 177 | 0.0 | 0.9 | 0.00 | 0.00 | 0.00 | 8 | 1008.6 |
| 20260505091256 | 70 | 177 | 0.0 | 0.9 | 0.00 | 0.00 | 0.00 | 7 | 1008.6 |
| 20260505091155 | 70 | 177 | 0.0 | 0.9 | 0.00 | 0.00 | 0.00 | 7 | 1008.6 |
| 20260505090957 | 70 | 177 | 0.0 | 0.9 | 0.00 | 0.00 | 0.00 | 7 | 1008.6 |
| 20260505090857 | 70 | 177 | 0.0 | 0.9 | 0.00 | 0.00 | 0.00 | 7 | 1008.5 |
| 20260505090756 | 70 | 177 | 0.0 | 0.9 | 0.00 | 0.00 | 0.00 | 7 | 1008.5 |
| 20260505090558 | 70 | 177 | 0.0 | 1.7 | 0.00 | 0.00 | 0.00 | 7 | 1008.5 |
| 20260505090358 | 70 | 177 | 0.0 | 1.7 | 0.00 | 0.00 | 0.00 | 7 | 1008.5 |
| 20260505090257 | 70 | 177 | 0.0 | 1.7 | 0.00 | 0.00 | 0.00 | 8 | 1008.6 |
| 20260505090158 | 70 | 177 | 0.0 | 1.7 | 0.00 | 0.00 | 0.00 | 8 | 1008.6 |
| 20260505090058 | 70 | 177 | 0.0 | 1.7 | 0.00 | 0.00 | 0.00 | 8 | 1008.5 |
| 20260505085857 | 70 | 177 | 0.0 | 1.7 | 0.00 | 0.00 | 0.00 | 8 | 1008.5 |
| 20260505085758 | 70 | 177 | 0.0 | 1.7 | 0.00 | 0.00 | 0.00 | 8 | 1008.5 |
| 20260505085657 | 70 | 177 | 1.7 | 1.7 | 0.00 | 0.00 | 0.00 | 8 | 1008.5 |
| 20260505085556 | 70 | 177 | 0.0 | 0.9 | 0.00 | 0.00 | 0.00 | 8 | 1008.5 |
| 20260505085458 | 70 | 177 | 0.0 | 0.9 | 0.00 | 0.00 | 0.00 | 8 | 1008.6 |
| 20260505085257 | 70 | 177 | 0.0 | 0.9 | 0.00 | 0.00 | 0.00 | 9 | 1008.6 |
| 20260505085157 | 70 | 177 | 0.0 | 0.9 | 0.00 | 0.00 | 0.00 | 9 | 1008.6 |
| 20260505085058 | 70 | 177 | 0.0 | 0.9 | 0.00 | 0.00 | 0.00 | 9 | 1008.6 |
| 20260505084959 | 70 | 177 | 0.0 | 0.9 | 0.00 | 0.00 | 0.00 | 10 | 1008.6 |
| 20260505084756 | 70 | 177 | 0.0 | 0.9 | 0.00 | 0.00 | 0.00 | 10 | 1008.5 |
| 20260505084556 | 70 | 177 | 0.0 | 0.9 | 0.00 | 0.00 | 0.00 | 10 | 1008.6 |
| 20260505084455 | 70 | 177 | 0.0 | 0.9 | 0.00 | 0.00 | 0.00 | 9 | 1008.6 |
| 20260505084357 | 70 | 177 | 0.0 | 0.9 | 0.00 | 0.00 | 0.00 | 9 | 1008.6 |
| 20260505084257 | 70 | 177 | 0.0 | 1.7 | 0.00 | 0.00 | 0.00 | 9 | 1008.5 |
| 20260505084158 | 70 | 177 | 0.0 | 1.7 | 0.00 | 0.00 | 0.00 | 9 | 1008.5 |
| 20260505084058 | 70 | 177 | 0.0 | 1.7 | 0.00 | 0.00 | 0.00 | 9 | 1008.5 |
| 20260505083959 | 70 | 177 | 0.0 | 1.7 | 0.00 | 0.00 | 0.00 | 9 | 1008.6 |
| 20260505083856 | 70 | 177 | 0.0 | 1.7 | 0.00 | 0.00 | 0.00 | 9 | 1008.6 |
| 20260505083758 | 70 | 177 | 0.0 | 1.7 | 0.00 | 0.00 | 0.00 | 9 | 1008.6 |
| 20260505083657 | 70 | 177 | 0.0 | 1.7 | 0.00 | 0.00 | 0.00 | 9 | 1008.6 |
| 20260505083557 | 70 | 177 | 0.0 | 1.7 | 0.00 | 0.00 | 0.00 | 9 | 1008.6 |
| 20260505083457 | 70 | 177 | 0.0 | 1.7 | 0.00 | 0.00 | 0.00 | 10 | 1008.6 |
| 20260505083357 | 70 | 177 | 0.0 | 1.7 | 0.00 | 0.00 | 0.00 | 10 | 1008.6 |
| 20260505083156 | 70 | 177 | 0.0 | 1.7 | 0.00 | 0.00 | 0.00 | 10 | 1008.5 |
| 20260505083057 | 70 | 177 | 0.0 | 1.7 | 0.00 | 0.00 | 0.00 | 10 | 1008.5 |
| 20260505083000 | 70 | 177 | 0.0 | 1.7 | 0.00 | 0.00 | 0.00 | 10 | 1008.5 |
| 20260505082858 | 70 | 177 | 0.0 | 1.7 | 0.00 | 0.00 | 0.00 | 10 | 1008.5 |
| 20260505082756 | 70 | 177 | 0.0 | 1.7 | 0.00 | 0.00 | 0.00 | 11 | 1008.5 |
| 20260505082556 | 70 | 177 | 0.0 | 2.6 | 0.00 | 0.00 | 0.00 | 11 | 1008.6 |
| 20260505082457 | 70 | 177 | 0.0 | 2.6 | 0.00 | 0.00 | 0.00 | 12 | 1008.5 |
| 20260505082358 | 70 | 177 | 0.0 | 2.6 | 0.00 | 0.00 | 0.00 | 12 | 1008.5 |
| 20260505082156 | 70 | 177 | 0.0 | 2.6 | 0.00 | 0.00 | 0.00 | 12 | 1008.6 |
| 20260505082055 | 70 | 177 | 0.0 | 2.6 | 0.00 | 0.00 | 0.00 | 12 | 1008.6 |
| 20260505081958 | 70 | 177 | 0.0 | 2.6 | 0.00 | 0.00 | 0.00 | 12 | 1008.6 |
| 20260505081857 | 70 | 177 | 0.0 | 2.6 | 0.00 | 0.00 | 0.00 | 13 | 1008.6 |
| 20260505081758 | 70 | 177 | 1.7 | 2.6 | 0.00 | 0.00 | 0.00 | 13 | 1008.6 |
| 20260505081458 | 70 | 177 | 0.0 | 1.7 | 0.00 | 0.00 | 0.00 | 14 | 1008.8 |
| 20260505081255 | 70 | 177 | 0.0 | 1.7 | 0.00 | 0.00 | 0.00 | 14 | 1008.8 |
| 20260505081158 | 70 | 177 | 0.0 | 2.6 | 0.00 | 0.00 | 0.00 | 15 | 1008.8 |
| 20260505081056 | 70 | 177 | 0.0 | 2.6 | 0.00 | 0.00 | 0.00 | 15 | 1008.8 |
| 20260505080858 | 70 | 177 | 0.0 | 2.6 | 0.00 | 0.00 | 0.00 | 15 | 1008.8 |
| 20260505080758 | 70 | 177 | 0.0 | 2.6 | 0.00 | 0.00 | 0.00 | 15 | 1008.8 |
| 20260505080658 | 70 | 177 | 0.0 | 2.6 | 0.00 | 0.00 | 0.00 | 15 | 1008.8 |
| 20260505080559 | 70 | 177 | 0.0 | 2.6 | 0.00 | 0.00 | 0.00 | 15 | 1008.8 |
| 20260505080456 | 70 | 177 | 0.0 | 2.6 | 0.00 | 0.00 | 0.00 | 15 | 1008.8 |
| 20260505080358 | 70 | 177 | 0.0 | 2.6 | 0.00 | 0.00 | 0.00 | 15 | 1008.9 |
| 20260505080257 | 70 | 171 | 0.0 | 1.7 | 0.00 | 0.00 | 0.00 | 15 | 1008.9 |
| 20260505080057 | 70 | 171 | 0.0 | 2.6 | 0.00 | 0.00 | 0.00 | 16 | 1008.8 |
| 20260505080002 | 70 | 171 | 0.9 | 2.6 | 0.00 | 0.00 | 0.00 | 16 | 1008.8 |
| 20260505075756 | 70 | 171 | 0.0 | 2.6 | 0.00 | 0.00 | 0.00 | 16 | 1008.9 |
| 20260505075656 | 70 | 171 | 0.9 | 2.6 | 0.00 | 0.00 | 0.00 | 16 | 1008.9 |
| 20260505075558 | 70 | 171 | 0.0 | 2.6 | 0.00 | 0.00 | 0.00 | 16 | 1008.9 |
| 20260505075458 | 70 | 171 | 0.0 | 2.6 | 0.00 | 0.00 | 0.00 | 16 | 1008.9 |
| 20260505075358 | 70 | 171 | 2.6 | 2.6 | 0.00 | 0.00 | 0.00 | 16 | 1008.9 |
| 20260505075256 | 70 | 170 | 0.9 | 1.7 | 0.00 | 0.00 | 0.00 | 16 | 1008.9 |
| 20260505075158 | 70 | 170 | 0.9 | 1.7 | 0.00 | 0.00 | 0.00 | 16 | 1008.9 |
| 20260505075056 | 70 | 170 | 0.0 | 2.6 | 0.00 | 0.00 | 0.00 | 16 | 1008.9 |
| 20260505074957 | 70 | 170 | 0.0 | 2.6 | 0.00 | 0.00 | 0.00 | 16 | 1008.9 |
| 20260505074857 | 70 | 170 | 0.0 | 2.6 | 0.00 | 0.00 | 0.00 | 16 | 1009.0 |
| 20260505074756 | 70 | 170 | 0.0 | 2.6 | 0.00 | 0.00 | 0.00 | 17 | 1008.9 |
| 20260505074557 | 70 | 170 | 0.0 | 2.6 | 0.00 | 0.00 | 0.00 | 17 | 1009.0 |
| 20260505074456 | 70 | 170 | 0.0 | 2.6 | 0.00 | 0.00 | 0.00 | 16 | 1009.0 |
| 20260505074358 | 70 | 170 | 0.0 | 2.6 | 0.00 | 0.00 | 0.00 | 16 | 1009.0 |
| 20260505074259 | 70 | 170 | 0.0 | 2.6 | 0.00 | 0.00 | 0.00 | 16 | 1009.0 |
| 20260505074158 | 70 | 170 | 1.7 | 2.6 | 0.00 | 0.00 | 0.00 | 17 | 1009.0 |
| 20260505074055 | 70 | 170 | 0.0 | 2.6 | 0.00 | 0.00 | 0.00 | 17 | 1009.0 |
| 20260505073958 | 70 | 170 | 0.0 | 2.6 | 0.00 | 0.00 | 0.00 | 17 | 1009.0 |
| 20260505073857 | 70 | 170 | 0.0 | 2.6 | 0.00 | 0.00 | 0.00 | 17 | 1009.0 |
| 20260505073758 | 70 | 170 | 0.0 | 2.6 | 0.00 | 0.00 | 0.00 | 17 | 1009.0 |
| 20260505073657 | 70 | 170 | 0.0 | 2.6 | 0.00 | 0.00 | 0.00 | 17 | 1009.0 |
| 20260505073356 | 70 | 170 | 0.0 | 2.6 | 0.00 | 0.00 | 0.00 | 18 | 1009.0 |
| 20260505073255 | 70 | 170 | 0.0 | 2.6 | 0.00 | 0.00 | 0.00 | 18 | 1009.0 |
| 20260505073156 | 70 | 170 | 0.0 | 2.6 | 0.00 | 0.00 | 0.00 | 18 | 1009.0 |
| 20260505073057 | 70 | 170 | 0.0 | 2.6 | 0.00 | 0.00 | 0.00 | 18 | 1009.0 |
| 20260505073000 | 70 | 170 | 0.0 | 2.6 | 0.00 | 0.00 | 0.00 | 18 | 1009.0 |
| 20260505072855 | 70 | 170 | 0.0 | 2.6 | 0.00 | 0.00 | 0.00 | 18 | 1008.9 |
| 20260505072756 | 70 | 170 | 0.0 | 2.6 | 0.00 | 0.00 | 0.00 | 19 | 1009.0 |
| 20260505072657 | 70 | 170 | 0.0 | 2.6 | 0.00 | 0.00 | 0.00 | 19 | 1008.9 |
| 20260505072558 | 70 | 170 | 0.0 | 2.6 | 0.00 | 0.00 | 0.00 | 19 | 1008.9 |
| 20260505072455 | 70 | 170 | 0.0 | 2.6 | 0.00 | 0.00 | 0.00 | 19 | 1008.9 |
| 20260505072258 | 70 | 170 | 0.0 | 1.7 | 0.00 | 0.00 | 0.00 | 19 | 1009.0 |
| 20260505072158 | 70 | 170 | 0.0 | 1.7 | 0.00 | 0.00 | 0.00 | 19 | 1009.0 |
| 20260505072055 | 69 | 170 | 0.0 | 1.7 | 0.00 | 0.00 | 0.00 | 19 | 1009.1 |
| 20260505071957 | 69 | 170 | 0.9 | 1.7 | 0.00 | 0.00 | 0.00 | 19 | 1009.1 |
| 20260505071857 | 69 | 170 | 0.0 | 1.7 | 0.00 | 0.00 | 0.00 | 19 | 1009.1 |
| 20260505071758 | 69 | 170 | 0.0 | 1.7 | 0.00 | 0.00 | 0.00 | 19 | 1009.1 |
| 20260505071656 | 69 | 170 | 0.0 | 1.7 | 0.00 | 0.00 | 0.00 | 20 | 1009.1 |
| 20260505071556 | 69 | 170 | 0.0 | 1.7 | 0.00 | 0.00 | 0.00 | 20 | 1009.1 |
| 20260505071458 | 69 | 170 | 0.9 | 1.7 | 0.00 | 0.00 | 0.00 | 20 | 1009.1 |
| 20260505071358 | 69 | 165 | 0.0 | 1.7 | 0.00 | 0.00 | 0.00 | 20 | 1009.1 |
| 20260505071257 | 69 | 164 | 0.0 | 1.7 | 0.00 | 0.00 | 0.00 | 20 | 1009.2 |
| 20260505071156 | 69 | 165 | 0.0 | 1.7 | 0.00 | 0.00 | 0.00 | 21 | 1009.2 |
| 20260505071058 | 69 | 165 | 0.0 | 1.7 | 0.00 | 0.00 | 0.00 | 21 | 1009.3 |
| 20260505070959 | 69 | 165 | 0.9 | 1.7 | 0.00 | 0.00 | 0.00 | 21 | 1009.3 |
| 20260505070756 | 69 | 164 | 0.0 | 1.7 | 0.00 | 0.00 | 0.00 | 22 | 1009.3 |
| 20260505070657 | 69 | 165 | 0.0 | 1.7 | 0.00 | 0.00 | 0.00 | 22 | 1009.3 |
| 20260505070457 | 69 | 165 | 0.0 | 1.7 | 0.00 | 0.00 | 0.00 | 22 | 1009.2 |
| 20260505070356 | 69 | 164 | 0.0 | 1.7 | 0.00 | 0.00 | 0.00 | 22 | 1009.3 |
| 20260505070255 | 69 | 165 | 0.0 | 1.7 | 0.00 | 0.00 | 0.00 | 23 | 1009.3 |
| 20260505070057 | 69 | 165 | 0.0 | 1.7 | 0.00 | 0.00 | 0.00 | 23 | 1009.3 |
| 20260505065858 | 69 | 165 | 0.0 | 1.7 | 0.00 | 0.00 | 0.00 | 24 | 1009.4 |
| 20260505065758 | 69 | 165 | 0.0 | 1.7 | 0.00 | 0.00 | 0.00 | 24 | 1009.4 |
| 20260505065655 | 69 | 164 | 0.0 | 1.7 | 0.00 | 0.00 | 0.00 | 24 | 1009.4 |
| 20260505065556 | 69 | 164 | 0.0 | 1.7 | 0.00 | 0.00 | 0.00 | 24 | 1009.4 |
| 20260505065458 | 69 | 164 | 0.0 | 1.7 | 0.00 | 0.00 | 0.00 | 24 | 1009.4 |
| 20260505065358 | 69 | 165 | 0.0 | 1.7 | 0.00 | 0.00 | 0.00 | 24 | 1009.3 |
| 20260505065257 | 69 | 164 | 0.0 | 1.7 | 0.00 | 0.00 | 0.00 | 25 | 1009.4 |
| 20260505065057 | 69 | 164 | 0.0 | 0.9 | 0.00 | 0.00 | 0.00 | 25 | 1009.4 |
| 20260505065001 | 69 | 164 | 0.0 | 0.9 | 0.00 | 0.00 | 0.00 | 25 | 1009.5 |
| 20260505064857 | 69 | 164 | 0.0 | 0.9 | 0.00 | 0.00 | 0.00 | 25 | 1009.5 |
| 20260505064756 | 69 | 164 | 0.0 | 0.9 | 0.00 | 0.00 | 0.00 | 26 | 1009.5 |
| 20260505064558 | 69 | 164 | 0.0 | 0.9 | 0.00 | 0.00 | 0.00 | 26 | 1009.5 |
| 20260505064356 | 69 | 164 | 0.0 | 0.9 | 0.00 | 0.00 | 0.00 | 27 | 1009.6 |
| 20260505064158 | 69 | 164 | 0.0 | 0.9 | 0.00 | 0.00 | 0.00 | 27 | 1009.6 |
| 20260505064058 | 69 | 164 | 0.0 | 0.9 | 0.00 | 0.00 | 0.00 | 27 | 1009.6 |
| 20260505063957 | 69 | 164 | 0.0 | 0.9 | 0.00 | 0.00 | 0.00 | 27 | 1009.7 |
| 20260505063855 | 69 | 164 | 0.0 | 0.9 | 0.00 | 0.00 | 0.00 | 28 | 1009.7 |
| 20260505063759 | 69 | 164 | 0.0 | 0.9 | 0.00 | 0.00 | 0.00 | 28 | 1009.7 |
| 20260505063556 | 69 | 164 | 0.9 | 0.9 | 0.00 | 0.00 | 0.00 | 28 | 1009.8 |
| 20260505063456 | 69 | 164 | 0.0 | 0.9 | 0.00 | 0.00 | 0.00 | 28 | 1009.8 |
| 20260505063358 | 69 | 164 | 0.0 | 0.9 | 0.00 | 0.00 | 0.00 | 28 | 1009.8 |
| 20260505063257 | 69 | 164 | 0.0 | 0.9 | 0.00 | 0.00 | 0.00 | 28 | 1009.8 |
| 20260505063158 | 69 | 164 | 0.0 | 0.9 | 0.00 | 0.00 | 0.00 | 29 | 1009.8 |
| 20260505063056 | 69 | 164 | 0.0 | 2.6 | 0.00 | 0.00 | 0.00 | 29 | 1009.8 |
| 20260505062858 | 69 | 164 | 0.0 | 2.6 | 0.00 | 0.00 | 0.00 | 30 | 1009.9 |
| 20260505062758 | 69 | 164 | 0.0 | 2.6 | 0.00 | 0.00 | 0.00 | 30 | 1009.9 |
| 20260505062656 | 69 | 164 | 0.0 | 2.6 | 0.00 | 0.00 | 0.00 | 30 | 1009.9 |
| 20260505062556 | 69 | 164 | 0.0 | 2.6 | 0.00 | 0.00 | 0.00 | 30 | 1009.9 |
| 20260505062458 | 69 | 164 | 0.0 | 2.6 | 0.00 | 0.00 | 0.00 | 30 | 1009.9 |
| 20260505062258 | 69 | 164 | 0.0 | 2.6 | 0.00 | 0.00 | 0.00 | 32 | 1009.9 |
| 20260505062158 | 69 | 164 | 0.0 | 0.9 | 0.00 | 0.00 | 0.00 | 32 | 1010.0 |
| 20260505062057 | 69 | 164 | 0.0 | 0.9 | 0.00 | 0.00 | 0.00 | 32 | 1010.0 |
| 20260505061957 | 69 | 164 | 0.0 | 0.9 | 0.00 | 0.00 | 0.00 | 32 | 1010.1 |
| 20260505061855 | 69 | 164 | 0.0 | 0.0 | 0.00 | 0.00 | 0.00 | 33 | 1010.1 |
| 20260505061756 | 69 | 164 | 0.0 | 0.0 | 0.00 | 0.00 | 0.00 | 34 | 1010.1 |
| 20260505061656 | 69 | 164 | 0.0 | 0.9 | 0.00 | 0.00 | 0.00 | 35 | 1010.2 |
| 20260505061558 | 69 | 164 | 0.0 | 0.9 | 0.00 | 0.00 | 0.00 | 35 | 1010.2 |
| 20260505061456 | 69 | 164 | 0.0 | 0.9 | 0.00 | 0.00 | 0.00 | 35 | 1010.1 |
| 20260505061357 | 69 | 164 | 0.0 | 0.9 | 0.00 | 0.00 | 0.00 | 34 | 1010.1 |
| 20260505061056 | 69 | 164 | 0.0 | 0.9 | 0.00 | 0.00 | 0.00 | 34 | 1010.1 |
| 20260505060957 | 69 | 164 | 0.0 | 0.9 | 0.00 | 0.00 | 0.00 | 35 | 1010.1 |
| 20260505060857 | 69 | 164 | 0.0 | 0.9 | 0.00 | 0.00 | 0.00 | 35 | 1010.1 |
| 20260505060758 | 69 | 164 | 0.0 | 0.9 | 0.00 | 0.00 | 0.00 | 35 | 1010.0 |
| 20260505060656 | 69 | 164 | 0.0 | 0.9 | 0.00 | 0.00 | 0.00 | 35 | 1010.0 |
| 20260505060556 | 69 | 164 | 0.0 | 0.9 | 0.00 | 0.00 | 0.00 | 36 | 1010.0 |
| 20260505060457 | 69 | 164 | 0.0 | 0.0 | 0.00 | 0.00 | 0.00 | 36 | 1009.9 |
| 20260505060358 | 69 | 164 | 0.0 | 0.0 | 0.00 | 0.00 | 0.00 | 37 | 1010.0 |
| 20260505060256 | 69 | 164 | 0.0 | 0.0 | 0.00 | 0.00 | 0.00 | 36 | 1010.0 |
| 20260505060156 | 69 | 164 | 0.0 | 0.0 | 0.00 | 0.00 | 0.00 | 36 | 1010.0 |
| 20260505060057 | 69 | 164 | 0.0 | 0.9 | 0.00 | 0.00 | 0.00 | 36 | 1010.0 |
| 20260505055859 | 69 | 164 | 0.0 | 0.9 | 0.00 | 0.00 | 0.00 | 36 | 1010.0 |
| 20260505055757 | 69 | 164 | 0.0 | 0.9 | 0.00 | 0.00 | 0.00 | 37 | 1009.9 |
| 20260505055657 | 69 | 164 | 0.0 | 0.9 | 0.00 | 0.00 | 0.00 | 37 | 1009.9 |
| 20260505055559 | 69 | 164 | 0.0 | 0.9 | 0.00 | 0.00 | 0.00 | 37 | 1009.9 |
| 20260505055500 | 69 | 164 | 0.0 | 0.9 | 0.00 | 0.00 | 0.00 | 37 | 1009.9 |
| 20260505055357 | 69 | 164 | 0.0 | 0.9 | 0.00 | 0.00 | 0.00 | 37 | 1009.9 |
| 20260505055256 | 69 | 164 | 0.0 | 0.9 | 0.00 | 0.00 | 0.00 | 37 | 1009.9 |
| 20260505055200 | 69 | 164 | 0.0 | 0.9 | 0.00 | 0.00 | 0.00 | 38 | 1009.9 |
| 20260505055100 | 70 | 164 | 0.0 | 0.9 | 0.00 | 0.00 | 0.00 | 38 | 1009.9 |
| 20260505054958 | 70 | 164 | 0.0 | 0.9 | 0.00 | 0.00 | 0.00 | 38 | 1009.9 |
| 20260505054857 | 70 | 164 | 0.0 | 0.9 | 0.00 | 0.00 | 0.00 | 38 | 1009.9 |
| 20260505054759 | 70 | 164 | 0.0 | 0.9 | 0.00 | 0.00 | 0.00 | 39 | 1009.9 |
| 20260505054659 | 70 | 164 | 0.0 | 0.9 | 0.00 | 0.00 | 0.00 | 39 | 1009.9 |
| 20260505054557 | 70 | 164 | 0.0 | 0.9 | 0.00 | 0.00 | 0.00 | 39 | 1010.0 |
| 20260505054400 | 70 | 164 | 0.0 | 0.9 | 0.00 | 0.00 | 0.00 | 39 | 1010.0 |
| 20260505054300 | 70 | 164 | 0.0 | 0.9 | 0.00 | 0.00 | 0.00 | 40 | 1010.1 |
| 20260505054157 | 70 | 164 | 0.0 | 0.9 | 0.00 | 0.00 | 0.00 | 40 | 1010.1 |
| 20260505054056 | 70 | 164 | 0.0 | 0.0 | 0.00 | 0.00 | 0.00 | 41 | 1010.1 |
| 20260505053959 | 70 | 164 | 0.0 | 0.0 | 0.00 | 0.00 | 0.00 | 41 | 1010.2 |
| 20260505053859 | 70 | 164 | 0.0 | 0.0 | 0.00 | 0.00 | 0.00 | 41 | 1010.2 |
| 20260505053800 | 70 | 164 | 0.0 | 0.0 | 0.00 | 0.00 | 0.00 | 41 | 1010.2 |
| 20260505053656 | 70 | 164 | 0.0 | 0.0 | 0.00 | 0.00 | 0.00 | 41 | 1010.3 |
| 20260505053557 | 70 | 164 | 0.0 | 0.0 | 0.00 | 0.00 | 0.00 | 41 | 1010.3 |
| 20260505053459 | 70 | 164 | 0.0 | 0.0 | 0.00 | 0.00 | 0.00 | 42 | 1010.3 |
| 20260505053400 | 70 | 164 | 0.0 | 0.0 | 0.00 | 0.00 | 0.00 | 43 | 1010.3 |
| 20260505053256 | 70 | 164 | 0.0 | 0.0 | 0.00 | 0.00 | 0.00 | 42 | 1010.3 |
| 20260505053059 | 70 | 164 | 0.0 | 0.0 | 0.00 | 0.00 | 0.00 | 43 | 1010.3 |
| 20260505052856 | 70 | 164 | 0.0 | 1.7 | 0.00 | 0.00 | 0.00 | 43 | 1010.4 |
| 20260505052757 | 70 | 164 | 0.0 | 1.7 | 0.00 | 0.00 | 0.00 | 43 | 1010.4 |
| 20260505052700 | 70 | 164 | 0.0 | 1.7 | 0.00 | 0.00 | 0.00 | 43 | 1010.4 |
| 20260505052600 | 70 | 164 | 0.0 | 1.7 | 0.00 | 0.00 | 0.00 | 43 | 1010.4 |
| 20260505052459 | 70 | 164 | 0.0 | 1.7 | 0.00 | 0.00 | 0.00 | 43 | 1010.3 |
| 20260505052357 | 70 | 164 | 0.0 | 1.7 | 0.00 | 0.00 | 0.00 | 43 | 1010.3 |
| 20260505052300 | 70 | 164 | 0.0 | 1.7 | 0.00 | 0.00 | 0.00 | 43 | 1010.3 |
| 20260505052200 | 70 | 164 | 0.0 | 1.7 | 0.00 | 0.00 | 0.00 | 43 | 1010.3 |
| 20260505052056 | 70 | 164 | 0.9 | 0.9 | 0.00 | 0.00 | 0.00 | 43 | 1010.3 |
| 20260505051656 | 70 | 164 | 0.0 | 0.9 | 0.00 | 0.00 | 0.00 | 45 | 1010.3 |
| 20260505051558 | 70 | 164 | 0.0 | 0.9 | 0.00 | 0.00 | 0.00 | 45 | 1010.3 |
| 20260505051359 | 70 | 164 | 0.0 | 1.7 | 0.00 | 0.00 | 0.00 | 45 | 1010.3 |
| 20260505051256 | 70 | 164 | 0.0 | 1.7 | 0.00 | 0.00 | 0.00 | 45 | 1010.3 |
| 20260505051157 | 70 | 164 | 0.0 | 1.7 | 0.00 | 0.00 | 0.00 | 45 | 1010.3 |
| 20260505051057 | 70 | 164 | 0.0 | 1.7 | 0.00 | 0.00 | 0.00 | 46 | 1010.3 |
| 20260505051000 | 70 | 164 | 0.0 | 1.7 | 0.00 | 0.00 | 0.00 | 45 | 1010.3 |
| 20260505050757 | 70 | 164 | 0.0 | 1.7 | 0.00 | 0.00 | 0.00 | 46 | 1010.3 |
| 20260505050659 | 70 | 164 | 0.0 | 1.7 | 0.00 | 0.00 | 0.00 | 46 | 1010.3 |
| 20260505050600 | 70 | 164 | 0.0 | 1.7 | 0.00 | 0.00 | 0.00 | 46 | 1010.4 |
| 20260505050457 | 70 | 164 | 0.0 | 0.9 | 0.00 | 0.00 | 0.00 | 47 | 1010.3 |
| 20260505050357 | 70 | 164 | 0.0 | 0.9 | 0.00 | 0.00 | 0.00 | 46 | 1010.3 |
| 20260505050300 | 70 | 164 | 0.0 | 0.9 | 0.00 | 0.00 | 0.00 | 46 | 1010.3 |
| 20260505050200 | 70 | 164 | 0.0 | 0.9 | 0.00 | 0.00 | 0.00 | 47 | 1010.3 |